IT9IJI-13 Weather Reports


time (UTC)temp
C
wind
direction
speed
KPH
gust
KPH
rain 1hr
cm
rain 24hr
cm
rain mn
cm
humidity
%
barometer
mb
20260507150504 23 82 1.6 6.4 0.00 0.00 0.00 50 1008.5
20260507150404 23 88 1.6 8.0 0.00 0.00 0.00 50 1008.3
20260507150304 23 88 1.6 8.0 0.00 0.00 0.00 50 1008.4
20260507150204 23 87 1.6 8.0 0.00 0.00 0.00 50 1008.5
20260507150104 23 92 1.6 8.0 0.00 0.00 0.00 50 1008.5
20260507150004 23 97 1.6 8.0 0.00 0.00 0.00 49 1008.4
20260507145904 23 94 1.6 8.0 0.00 0.00 0.00 49 1008.5
20260507145804 23 101 1.6 8.0 0.00 0.00 0.00 49 1008.5
20260507145704 23 102 1.6 8.0 0.00 0.00 0.00 49 1008.5
20260507145604 23 104 1.6 8.0 0.00 0.00 0.00 49 1008.5
20260507145504 23 112 1.6 8.0 0.00 0.00 0.00 49 1008.5
20260507145404 23 110 1.6 11.3 0.00 0.00 0.00 49 1008.7
20260507145306 23 108 1.6 11.3 0.00 0.00 0.00 49 1008.6
20260507145204 23 107 1.6 11.3 0.00 0.00 0.00 49 1008.7
20260507145104 23 106 1.6 11.3 0.00 0.00 0.00 49 1008.7
20260507145004 23 104 1.6 11.3 0.00 0.00 0.00 49 1008.7
20260507144904 24 107 1.6 11.3 0.00 0.00 0.00 49 1008.8
20260507144804 24 105 1.6 11.3 0.00 0.00 0.00 49 1008.8
20260507144704 24 107 1.6 11.3 0.00 0.00 0.00 49 1008.8
20260507144604 24 106 1.6 11.3 0.00 0.00 0.00 48 1008.6
20260507144504 24 104 1.6 11.3 0.00 0.00 0.00 48 1008.6
20260507144404 24 107 1.6 14.5 0.00 0.00 0.00 48 1008.6
20260507144304 24 112 1.6 14.5 0.00 0.00 0.00 48 1008.5
20260507144204 24 113 1.6 14.5 0.00 0.00 0.00 48 1008.5
20260507144104 24 112 1.6 14.5 0.00 0.00 0.00 48 1008.6
20260507144004 24 113 1.6 14.5 0.00 0.00 0.00 48 1008.6
20260507143904 24 114 1.6 14.5 0.00 0.00 0.00 48 1008.7
20260507143803 24 116 1.6 14.5 0.00 0.00 0.00 48 1008.7
20260507143704 24 115 1.6 14.5 0.00 0.00 0.00 48 1008.7
20260507143604 24 118 1.6 14.5 0.00 0.00 0.00 48 1008.6
20260507143504 24 122 1.6 14.5 0.00 0.00 0.00 48 1008.6
20260507143403 24 116 1.6 11.3 0.00 0.00 0.00 48 1008.5
20260507143303 24 113 1.6 11.3 0.00 0.00 0.00 48 1008.7
20260507143203 24 115 1.6 11.3 0.00 0.00 0.00 48 1008.8
20260507143103 24 118 1.6 11.3 0.00 0.00 0.00 47 1008.8
20260507143004 24 119 1.6 11.3 0.00 0.00 0.00 47 1008.8
20260507142903 24 117 1.6 11.3 0.00 0.00 0.00 47 1008.8
20260507142803 24 119 1.6 8.0 0.00 0.00 0.00 47 1008.8
20260507142703 24 118 1.6 8.0 0.00 0.00 0.00 47 1008.8
20260507142603 24 116 1.6 8.0 0.00 0.00 0.00 47 1008.8
20260507142504 24 105 1.6 8.0 0.00 0.00 0.00 47 1008.8
20260507142403 24 108 1.6 8.0 0.00 0.00 0.00 47 1008.7
20260507142306 24 106 1.6 8.0 0.00 0.00 0.00 47 1008.7
20260507142203 24 102 1.6 8.0 0.00 0.00 0.00 47 1008.7
20260507142103 24 98 1.6 8.0 0.00 0.00 0.00 47 1008.8
20260507142003 24 100 1.6 8.0 0.00 0.00 0.00 47 1008.9
20260507141903 24 98 1.6 8.0 0.00 0.00 0.00 47 1008.9
20260507141803 24 96 1.6 8.0 0.00 0.00 0.00 47 1008.9
20260507141703 24 98 1.6 8.0 0.00 0.00 0.00 46 1008.9
20260507141603 24 95 1.6 8.0 0.00 0.00 0.00 46 1009.0
20260507141503 24 106 1.6 8.0 0.00 0.00 0.00 46 1009.1
20260507141403 24 102 1.6 8.0 0.00 0.00 0.00 46 1009.1
20260507141303 24 103 1.6 8.0 0.00 0.00 0.00 46 1009.1
20260507141203 24 103 1.6 8.0 0.00 0.00 0.00 46 1009.1
20260507141103 24 101 1.6 8.0 0.00 0.00 0.00 46 1009.2
20260507141003 24 102 1.6 9.7 0.00 0.00 0.00 46 1009.3
20260507140903 24 100 1.6 9.7 0.00 0.00 0.00 46 1009.3
20260507140803 24 99 3.2 9.7 0.00 0.00 0.00 46 1009.3
20260507140703 24 99 3.2 9.7 0.00 0.00 0.00 46 1009.3
20260507140603 24 99 1.6 9.7 0.00 0.00 0.00 46 1009.2
20260507140503 24 102 3.2 9.7 0.00 0.00 0.00 46 1009.3
20260507140403 24 103 1.6 9.7 0.00 0.00 0.00 45 1009.3
20260507140303 24 103 1.6 9.7 0.00 0.00 0.00 45 1009.2
20260507140203 24 103 1.6 9.7 0.00 0.00 0.00 45 1009.4
20260507140103 24 103 1.6 9.7 0.00 0.00 0.00 45 1009.3
20260507140003 24 104 1.6 9.7 0.00 0.00 0.00 45 1009.4
20260507135903 24 108 1.6 9.7 0.00 0.00 0.00 45 1009.4
20260507135804 24 108 1.6 9.7 0.00 0.00 0.00 45 1009.5
20260507135703 25 111 1.6 9.7 0.00 0.00 0.00 45 1009.5
20260507135603 25 107 1.6 9.7 0.00 0.00 0.00 45 1009.5
20260507135503 25 107 1.6 9.7 0.00 0.00 0.00 45 1009.6
20260507135403 25 103 1.6 9.7 0.00 0.00 0.00 45 1009.6
20260507135306 25 102 1.6 9.7 0.00 0.00 0.00 45 1009.6
20260507135203 25 105 1.6 9.7 0.00 0.00 0.00 45 1009.7
20260507135103 25 109 1.6 11.3 0.00 0.00 0.00 45 1009.6
20260507135003 25 109 1.6 11.3 0.00 0.00 0.00 45 1009.6
20260507134903 25 109 1.6 11.3 0.00 0.00 0.00 44 1009.7
20260507134803 25 109 1.6 11.3 0.00 0.00 0.00 44 1009.6
20260507134703 25 109 1.6 11.3 0.00 0.00 0.00 44 1009.6
20260507134603 25 114 1.6 11.3 0.00 0.00 0.00 44 1009.7
20260507134503 25 109 3.2 11.3 0.00 0.00 0.00 44 1009.7
20260507134403 25 112 3.2 11.3 0.00 0.00 0.00 44 1009.6
20260507134303 25 113 3.2 11.3 0.00 0.00 0.00 44 1009.6
20260507134203 25 114 1.6 11.3 0.00 0.00 0.00 44 1009.6
20260507134103 25 118 1.6 9.7 0.00 0.00 0.00 45 1009.6
20260507134003 25 118 1.6 9.7 0.00 0.00 0.00 45 1009.6
20260507133903 25 115 1.6 9.7 0.00 0.00 0.00 45 1009.7
20260507133803 25 115 1.6 9.7 0.00 0.00 0.00 44 1009.7
20260507133703 25 114 1.6 9.7 0.00 0.00 0.00 45 1009.7
20260507133603 25 116 3.2 9.7 0.00 0.00 0.00 44 1009.7
20260507133503 25 119 1.6 9.7 0.00 0.00 0.00 44 1009.7
20260507133403 25 119 1.6 9.7 0.00 0.00 0.00 44 1009.7
20260507133303 25 117 3.2 16.1 0.00 0.00 0.00 44 1009.7
20260507133203 25 117 3.2 16.1 0.00 0.00 0.00 44 1009.8
20260507133103 25 114 3.2 16.1 0.00 0.00 0.00 44 1009.7
20260507133003 25 114 3.2 16.1 0.00 0.00 0.00 43 1009.7
20260507132903 25 115 3.2 16.1 0.00 0.00 0.00 43 1009.8
20260507132803 25 115 3.2 16.1 0.00 0.00 0.00 43 1009.7
20260507132703 25 116 3.2 16.1 0.00 0.00 0.00 43 1009.8
20260507132603 25 115 3.2 16.1 0.00 0.00 0.00 43 1009.9
20260507132503 25 112 3.2 16.1 0.00 0.00 0.00 43 1010.0
20260507132403 25 111 3.2 16.1 0.00 0.00 0.00 43 1009.9
20260507132307 25 110 3.2 12.9 0.00 0.00 0.00 43 1010.0
20260507132203 25 109 3.2 12.9 0.00 0.00 0.00 43 1009.9
20260507132103 25 108 3.2 12.9 0.00 0.00 0.00 43 1009.9
20260507132003 25 105 3.2 12.9 0.00 0.00 0.00 43 1009.9
20260507131903 25 105 4.8 12.9 0.00 0.00 0.00 43 1009.9
20260507131803 25 106 3.2 12.9 0.00 0.00 0.00 43 1009.9
20260507131703 25 106 4.8 14.5 0.00 0.00 0.00 43 1010.0
20260507131603 25 105 4.8 14.5 0.00 0.00 0.00 43 1009.9
20260507131503 25 105 4.8 14.5 0.00 0.00 0.00 43 1010.1
20260507131403 25 105 4.8 14.5 0.00 0.00 0.00 43 1010.0
20260507131303 25 107 4.8 14.5 0.00 0.00 0.00 42 1010.0
20260507131203 25 107 4.8 14.5 0.00 0.00 0.00 42 1009.9
20260507131103 25 106 4.8 14.5 0.00 0.00 0.00 42 1009.9
20260507131003 25 106 4.8 14.5 0.00 0.00 0.00 42 1010.0
20260507130903 25 107 4.8 14.5 0.00 0.00 0.00 42 1010.0
20260507130804 25 107 4.8 14.5 0.00 0.00 0.00 42 1010.0
20260507130704 25 107 4.8 11.3 0.00 0.00 0.00 43 1009.9
20260507130604 25 108 3.2 11.3 0.00 0.00 0.00 42 1009.9
20260507130504 25 110 3.2 11.3 0.00 0.00 0.00 42 1009.8
20260507130404 25 111 3.2 11.3 0.00 0.00 0.00 42 1009.9
20260507130304 25 107 3.2 9.7 0.00 0.00 0.00 43 1009.9
20260507130204 25 108 3.2 11.3 0.00 0.00 0.00 43 1009.9
20260507130104 25 111 3.2 11.3 0.00 0.00 0.00 42 1010.0
20260507130004 25 112 3.2 11.3 0.00 0.00 0.00 42 1010.1
20260507125904 25 112 3.2 11.3 0.00 0.00 0.00 42 1010.0
20260507125804 25 113 3.2 11.3 0.00 0.00 0.00 42 1010.0
20260507125704 25 113 3.2 12.9 0.00 0.00 0.00 42 1010.2
20260507125604 25 112 3.2 12.9 0.00 0.00 0.00 42 1010.2
20260507125504 25 113 3.2 12.9 0.00 0.00 0.00 41 1010.2
20260507125404 25 111 3.2 12.9 0.00 0.00 0.00 41 1010.2
20260507125306 25 112 3.2 12.9 0.00 0.00 0.00 41 1010.2
20260507125204 25 112 3.2 12.9 0.00 0.00 0.00 41 1010.1
20260507125104 25 116 3.2 12.9 0.00 0.00 0.00 41 1010.2
20260507125004 25 117 3.2 12.9 0.00 0.00 0.00 41 1010.1
20260507124904 25 115 3.2 12.9 0.00 0.00 0.00 41 1010.3
20260507124804 25 114 3.2 12.9 0.00 0.00 0.00 41 1010.3
20260507124704 25 113 3.2 14.5 0.00 0.00 0.00 41 1010.2
20260507124604 25 113 3.2 14.5 0.00 0.00 0.00 41 1010.2
20260507124504 25 111 3.2 14.5 0.00 0.00 0.00 41 1010.2
20260507124404 25 114 3.2 14.5 0.00 0.00 0.00 41 1010.2
20260507124304 25 114 3.2 14.5 0.00 0.00 0.00 41 1010.2
20260507124204 25 115 3.2 14.5 0.00 0.00 0.00 41 1010.2
20260507124104 25 108 3.2 14.5 0.00 0.00 0.00 41 1010.2
20260507124004 25 111 3.2 14.5 0.00 0.00 0.00 41 1010.2
20260507123904 25 112 3.2 14.5 0.00 0.00 0.00 41 1010.3
20260507123804 25 112 4.8 14.5 0.00 0.00 0.00 41 1010.3
20260507123704 25 114 4.8 14.5 0.00 0.00 0.00 40 1010.2
20260507123604 25 113 3.2 14.5 0.00 0.00 0.00 40 1010.3
20260507123504 25 113 3.2 14.5 0.00 0.00 0.00 40 1010.4
20260507123404 25 110 3.2 14.5 0.00 0.00 0.00 40 1010.4
20260507123304 25 110 3.2 14.5 0.00 0.00 0.00 40 1010.4
20260507123204 25 108 3.2 14.5 0.00 0.00 0.00 40 1010.4
20260507123104 25 110 3.2 12.9 0.00 0.00 0.00 40 1010.3
20260507123004 25 102 3.2 12.9 0.00 0.00 0.00 40 1010.3
20260507122904 25 99 3.2 12.9 0.00 0.00 0.00 39 1010.5
20260507122803 25 102 3.2 12.9 0.00 0.00 0.00 39 1010.5
20260507122705 25 100 3.2 12.9 0.00 0.00 0.00 39 1010.5
20260507122603 25 101 3.2 12.9 0.00 0.00 0.00 39 1010.4
20260507122504 25 101 3.2 12.9 0.00 0.00 0.00 39 1010.3
20260507122403 25 103 3.2 11.3 0.00 0.00 0.00 39 1010.4
20260507122306 25 102 4.8 11.3 0.00 0.00 0.00 38 1010.3
20260507122203 25 103 3.2 11.3 0.00 0.00 0.00 38 1010.4
20260507122104 25 105 3.2 11.3 0.00 0.00 0.00 38 1010.4
20260507122004 25 107 4.8 11.3 0.00 0.00 0.00 38 1010.6
20260507121903 26 108 3.2 11.3 0.00 0.00 0.00 38 1010.5
20260507121803 25 107 4.8 17.7 0.00 0.00 0.00 38 1010.6
20260507121703 25 108 4.8 17.7 0.00 0.00 0.00 38 1010.6
20260507121603 26 107 4.8 17.7 0.00 0.00 0.00 38 1010.5
20260507121504 26 108 3.2 17.7 0.00 0.00 0.00 38 1010.5
20260507121403 26 108 3.2 17.7 0.00 0.00 0.00 38 1010.4
20260507121303 26 109 3.2 17.7 0.00 0.00 0.00 38 1010.3
20260507121203 26 111 3.2 17.7 0.00 0.00 0.00 38 1010.5
20260507121103 26 110 3.2 17.7 0.00 0.00 0.00 37 1010.4
20260507121003 26 109 4.8 17.7 0.00 0.00 0.00 37 1010.4
20260507120903 25 107 4.8 17.7 0.00 0.00 0.00 37 1010.4
20260507120803 25 105 4.8 14.5 0.00 0.00 0.00 37 1010.3
20260507120703 25 105 3.2 14.5 0.00 0.00 0.00 37 1010.4
20260507120603 25 106 3.2 14.5 0.00 0.00 0.00 37 1010.5
20260507120503 25 106 4.8 14.5 0.00 0.00 0.00 37 1010.5
20260507120403 25 107 4.8 14.5 0.00 0.00 0.00 36 1010.4
20260507120303 26 106 4.8 14.5 0.00 0.00 0.00 36 1010.5
20260507120203 26 103 4.8 14.5 0.00 0.00 0.00 36 1010.5
20260507120103 26 105 4.8 14.5 0.00 0.00 0.00 36 1010.5
20260507120004 26 103 4.8 14.5 0.00 0.00 0.00 36 1010.4
20260507115903 26 105 4.8 12.9 0.00 0.00 0.00 36 1010.4
20260507115803 26 106 4.8 12.9 0.00 0.00 0.00 36 1010.2
20260507115703 26 106 4.8 12.9 0.00 0.00 0.00 36 1010.2
20260507115603 26 106 4.8 12.9 0.00 0.00 0.00 36 1010.2
20260507115503 26 106 4.8 14.5 0.00 0.00 0.00 35 1010.2
20260507115403 26 106 4.8 14.5 0.00 0.00 0.00 36 1010.2
20260507115306 26 105 4.8 14.5 0.00 0.00 0.00 36 1010.2
20260507115203 26 107 4.8 14.5 0.00 0.00 0.00 36 1010.3
20260507115103 26 108 4.8 14.5 0.00 0.00 0.00 35 1010.4
20260507115003 26 110 4.8 17.7 0.00 0.00 0.00 35 1010.5
20260507114903 26 109 4.8 17.7 0.00 0.00 0.00 35 1010.6
20260507114803 26 108 4.8 17.7 0.00 0.00 0.00 35 1010.6
20260507114703 26 105 4.8 17.7 0.00 0.00 0.00 35 1010.6
20260507114603 26 103 4.8 19.3 0.00 0.00 0.00 35 1010.6
20260507114503 26 101 4.8 19.3 0.00 0.00 0.00 34 1010.6
20260507114403 26 103 4.8 19.3 0.00 0.00 0.00 34 1010.6
20260507114303 26 102 4.8 19.3 0.00 0.00 0.00 34 1010.6
20260507114203 26 102 4.8 19.3 0.00 0.00 0.00 34 1010.6
20260507114103 26 101 4.8 19.3 0.00 0.00 0.00 34 1010.6
20260507114003 26 98 4.8 19.3 0.00 0.00 0.00 34 1010.5
20260507113903 26 98 4.8 19.3 0.00 0.00 0.00 34 1010.5
20260507113803 26 96 4.8 19.3 0.00 0.00 0.00 34 1010.5
20260507113703 26 99 3.2 19.3 0.00 0.00 0.00 34 1010.6
20260507113603 26 104 3.2 11.3 0.00 0.00 0.00 34 1010.6
20260507113503 26 103 3.2 9.7 0.00 0.00 0.00 34 1010.6
20260507113403 26 100 3.2 9.7 0.00 0.00 0.00 34 1010.6
20260507113303 26 97 3.2 9.7 0.00 0.00 0.00 35 1010.6
20260507113203 26 92 3.2 9.7 0.00 0.00 0.00 35 1010.4
20260507113103 26 95 3.2 9.7 0.00 0.00 0.00 35 1010.5
20260507113003 26 94 1.6 9.7 0.00 0.00 0.00 35 1010.6
20260507112903 26 92 1.6 9.7 0.00 0.00 0.00 35 1010.6
20260507112803 26 98 1.6 12.9 0.00 0.00 0.00 35 1010.6
20260507112703 26 100 1.6 12.9 0.00 0.00 0.00 35 1010.5
20260507112603 26 99 1.6 12.9 0.00 0.00 0.00 35 1010.5
20260507112503 26 102 1.6 12.9 0.00 0.00 0.00 35 1010.4
20260507112403 26 102 1.6 12.9 0.00 0.00 0.00 35 1010.3
20260507112306 26 108 1.6 12.9 0.00 0.00 0.00 35 1010.5
20260507112203 26 112 1.6 12.9 0.00 0.00 0.00 35 1010.5
20260507112103 26 111 1.6 12.9 0.00 0.00 0.00 35 1010.6
20260507112003 26 111 1.6 12.9 0.00 0.00 0.00 36 1010.5
20260507111904 26 110 1.6 12.9 0.00 0.00 0.00 36 1010.6
20260507111803 26 107 1.6 9.7 0.00 0.00 0.00 36 1010.6
20260507111703 26 104 1.6 9.7 0.00 0.00 0.00 37 1010.7
20260507111603 26 104 3.2 14.5 0.00 0.00 0.00 37 1010.7
20260507111503 26 109 3.2 14.5 0.00 0.00 0.00 37 1010.8
20260507111403 26 110 3.2 14.5 0.00 0.00 0.00 37 1010.7
20260507111303 26 107 3.2 14.5 0.00 0.00 0.00 37 1010.7
20260507111203 26 106 3.2 14.5 0.00 0.00 0.00 36 1010.7
20260507111103 26 106 3.2 14.5 0.00 0.00 0.00 36 1010.7
20260507111003 26 107 1.6 14.5 0.00 0.00 0.00 36 1010.6
20260507110903 26 107 1.6 14.5 0.00 0.00 0.00 36 1010.7
20260507110803 26 106 1.6 14.5 0.00 0.00 0.00 35 1010.7
20260507110703 26 108 1.6 14.5 0.00 0.00 0.00 35 1010.6
20260507110603 26 106 1.6 12.9 0.00 0.00 0.00 35 1010.7
20260507110503 26 98 1.6 12.9 0.00 0.00 0.00 35 1010.7
20260507110403 26 96 1.6 12.9 0.00 0.00 0.00 35 1010.7
20260507110303 26 95 1.6 12.9 0.00 0.00 0.00 35 1010.7
20260507110203 26 88 1.6 12.9 0.00 0.00 0.00 35 1010.7
20260507110103 26 93 1.6 12.9 0.00 0.00 0.00 35 1010.7
20260507110003 26 91 1.6 12.9 0.00 0.00 0.00 35 1010.7
20260507105904 26 94 3.2 12.9 0.00 0.00 0.00 35 1010.6
20260507105804 26 98 3.2 12.9 0.00 0.00 0.00 35 1010.6
20260507105704 26 102 1.6 9.7 0.00 0.00 0.00 35 1010.6
20260507105604 26 99 3.2 11.3 0.00 0.00 0.00 35 1010.6
20260507105504 26 96 3.2 11.3 0.00 0.00 0.00 35 1010.6
20260507105404 26 100 3.2 11.3 0.00 0.00 0.00 36 1010.5
20260507105306 26 101 3.2 11.3 0.00 0.00 0.00 35 1010.6
20260507105204 26 104 3.2 11.3 0.00 0.00 0.00 35 1010.6
20260507105104 26 102 1.6 11.3 0.00 0.00 0.00 35 1010.6
20260507105004 26 103 1.6 11.3 0.00 0.00 0.00 35 1010.5
20260507104904 26 99 1.6 11.3 0.00 0.00 0.00 34 1010.5
20260507104804 26 94 1.6 11.3 0.00 0.00 0.00 34 1010.5
20260507104704 26 95 1.6 11.3 0.00 0.00 0.00 34 1010.4
20260507104604 26 99 1.6 9.7 0.00 0.00 0.00 35 1010.4
20260507104504 26 98 1.6 9.7 0.00 0.00 0.00 34 1010.5
20260507104404 26 99 1.6 9.7 0.00 0.00 0.00 35 1010.4
20260507104304 26 91 1.6 9.7 0.00 0.00 0.00 35 1010.5
20260507104204 26 91 1.6 9.7 0.00 0.00 0.00 34 1010.5
20260507104104 26 95 1.6 9.7 0.00 0.00 0.00 34 1010.5
20260507104004 26 71 1.6 8.0 0.00 0.00 0.00 34 1010.5
20260507103904 26 66 1.6 6.4 0.00 0.00 0.00 35 1010.6
20260507103804 26 80 1.6 9.7 0.00 0.00 0.00 35 1010.6
20260507103704 26 80 1.6 9.7 0.00 0.00 0.00 35 1010.7
20260507103604 26 79 1.6 9.7 0.00 0.00 0.00 35 1010.6
20260507103504 26 87 1.6 9.7 0.00 0.00 0.00 35 1010.7
20260507103404 26 88 1.6 9.7 0.00 0.00 0.00 35 1010.7
20260507103304 26 91 1.6 9.7 0.00 0.00 0.00 35 1010.7
20260507103204 26 91 1.6 9.7 0.00 0.00 0.00 35 1010.6
20260507103104 26 90 1.6 9.7 0.00 0.00 0.00 33 1010.6
20260507103004 26 108 1.6 9.7 0.00 0.00 0.00 34 1010.6
20260507102904 26 108 1.6 9.7 0.00 0.00 0.00 33 1010.5
20260507102804 26 115 1.6 9.7 0.00 0.00 0.00 34 1010.6
20260507102704 26 130 1.6 6.4 0.00 0.00 0.00 35 1010.5
20260507102604 26 163 1.6 6.4 0.00 0.00 0.00 35 1010.6
20260507102504 26 153 1.6 6.4 0.00 0.00 0.00 35 1010.6
20260507102404 26 157 0.0 6.4 0.00 0.00 0.00 35 1010.6
20260507102306 26 162 1.6 6.4 0.00 0.00 0.00 35 1010.5
20260507102204 26 173 0.0 6.4 0.00 0.00 0.00 35 1010.6
20260507102104 26 173 0.0 6.4 0.00 0.00 0.00 35 1010.6
20260507102004 26 169 0.0 6.4 0.00 0.00 0.00 35 1010.6
20260507101904 26 194 1.6 6.4 0.00 0.00 0.00 35 1010.7
20260507101804 26 245 0.0 4.8 0.00 0.00 0.00 35 1010.7
20260507101704 26 120 0.0 4.8 0.00 0.00 0.00 35 1010.7
20260507101604 26 124 0.0 4.8 0.00 0.00 0.00 35 1010.7
20260507101504 26 127 0.0 6.4 0.00 0.00 0.00 35 1010.8
20260507101404 26 141 0.0 6.4 0.00 0.00 0.00 35 1010.8
20260507101303 26 143 0.0 6.4 0.00 0.00 0.00 35 1010.6
20260507101204 26 125 0.0 6.4 0.00 0.00 0.00 35 1010.8
20260507101103 26 119 0.0 6.4 0.00 0.00 0.00 35 1010.7
20260507101003 26 114 0.0 6.4 0.00 0.00 0.00 35 1010.7
20260507100903 26 112 0.0 6.4 0.00 0.00 0.00 35 1010.7
20260507100803 26 114 0.0 6.4 0.00 0.00 0.00 35 1010.8
20260507100703 26 108 0.0 6.4 0.00 0.00 0.00 36 1010.8
20260507100603 26 100 0.0 6.4 0.00 0.00 0.00 36 1010.8
20260507100503 26 100 0.0 6.4 0.00 0.00 0.00 36 1010.8
20260507100403 26 106 0.0 3.2 0.00 0.00 0.00 36 1010.8
20260507100303 26 105 0.0 3.2 0.00 0.00 0.00 35 1010.9
20260507100203 26 111 0.0 3.2 0.00 0.00 0.00 36 1010.8
20260507100103 26 121 0.0 3.2 0.00 0.00 0.00 36 1011.0
20260507100004 26 127 0.0 3.2 0.00 0.00 0.00 36 1011.0
20260507095903 26 119 0.0 9.7 0.00 0.00 0.00 36 1011.0
20260507095803 26 117 1.6 9.7 0.00 0.00 0.00 36 1011.1
20260507095703 25 115 1.6 9.7 0.00 0.00 0.00 36 1011.2
20260507095603 25 116 1.6 9.7 0.00 0.00 0.00 35 1011.2
20260507095503 25 113 1.6 9.7 0.00 0.00 0.00 36 1011.2
20260507095403 25 112 1.6 9.7 0.00 0.00 0.00 36 1011.2
20260507095305 25 113 1.6 9.7 0.00 0.00 0.00 36 1011.1
20260507095203 25 111 1.6 9.7 0.00 0.00 0.00 36 1011.1
20260507095103 25 111 1.6 9.7 0.00 0.00 0.00 35 1011.0
20260507095003 25 111 1.6 9.7 0.00 0.00 0.00 35 1011.0
20260507094903 25 109 1.6 6.4 0.00 0.00 0.00 35 1011.0
20260507094803 25 101 0.0 6.4 0.00 0.00 0.00 36 1011.1
20260507094703 25 100 1.6 8.0 0.00 0.00 0.00 35 1011.1
20260507094603 25 99 1.6 8.0 0.00 0.00 0.00 35 1011.1
20260507094504 25 97 0.0 8.0 0.00 0.00 0.00 36 1011.1
20260507094403 25 97 0.0 8.0 0.00 0.00 0.00 36 1011.0
20260507094303 25 97 0.0 8.0 0.00 0.00 0.00 37 1011.0
20260507094203 26 96 1.6 11.3 0.00 0.00 0.00 37 1011.1
20260507094103 26 96 1.6 11.3 0.00 0.00 0.00 36 1011.1
20260507094003 26 97 1.6 11.3 0.00 0.00 0.00 36 1011.2
20260507093903 26 96 1.6 11.3 0.00 0.00 0.00 36 1011.1
20260507093803 26 100 1.6 11.3 0.00 0.00 0.00 36 1011.1
20260507093703 26 96 1.6 11.3 0.00 0.00 0.00 36 1011.1
20260507093603 26 97 1.6 11.3 0.00 0.00 0.00 37 1011.1
20260507093503 26 92 1.6 11.3 0.00 0.00 0.00 36 1011.1
20260507093403 26 92 1.6 11.3 0.00 0.00 0.00 36 1011.2
20260507093303 26 89 1.6 11.3 0.00 0.00 0.00 36 1011.2
20260507093203 26 84 1.6 8.0 0.00 0.00 0.00 37 1011.2
20260507093103 26 81 1.6 8.0 0.00 0.00 0.00 37 1011.1
20260507093003 26 88 1.6 8.0 0.00 0.00 0.00 37 1011.1
20260507092903 26 88 1.6 8.0 0.00 0.00 0.00 37 1011.1
20260507092803 26 90 1.6 8.0 0.00 0.00 0.00 36 1011.1
20260507092703 26 83 1.6 6.4 0.00 0.00 0.00 36 1011.0
20260507092603 26 63 0.0 6.4 0.00 0.00 0.00 37 1011.0
20260507092503 26 52 0.0 6.4 0.00 0.00 0.00 37 1011.1
20260507092403 26 48 0.0 6.4 0.00 0.00 0.00 37 1011.0
20260507092306 26 66 0.0 6.4 0.00 0.00 0.00 37 1011.1
20260507092203 26 56 0.0 6.4 0.00 0.00 0.00 37 1011.1
20260507092103 26 75 0.0 6.4 0.00 0.00 0.00 37 1011.1
20260507092003 26 53 0.0 4.8 0.00 0.00 0.00 37 1011.0
20260507091903 26 68 0.0 4.8 0.00 0.00 0.00 37 1011.2
20260507091803 26 79 0.0 4.8 0.00 0.00 0.00 37 1011.1
20260507091703 26 97 0.0 4.8 0.00 0.00 0.00 37 1011.0
20260507091603 26 94 0.0 4.8 0.00 0.00 0.00 37 1011.0
20260507091503 26 98 0.0 4.8 0.00 0.00 0.00 38 1011.1
20260507091403 26 103 0.0 4.8 0.00 0.00 0.00 38 1011.1
20260507091303 26 112 0.0 4.8 0.00 0.00 0.00 38 1011.1
20260507091203 26 114 0.0 9.7 0.00 0.00 0.00 38 1011.0
20260507091103 26 114 0.0 9.7 0.00 0.00 0.00 38 1011.0
20260507091003 26 114 0.0 9.7 0.00 0.00 0.00 38 1011.0
20260507090903 26 112 0.0 9.7 0.00 0.00 0.00 38 1011.0
20260507090803 26 112 0.0 9.7 0.00 0.00 0.00 38 1011.0
20260507090703 26 107 0.0 9.7 0.00 0.00 0.00 38 1011.1
20260507090603 26 111 0.0 9.7 0.00 0.00 0.00 38 1011.1
20260507090503 26 112 0.0 9.7 0.00 0.00 0.00 38 1011.1
20260507090403 26 108 0.0 9.7 0.00 0.00 0.00 38 1011.2
20260507090303 26 109 0.0 9.7 0.00 0.00 0.00 38 1011.1
20260507090203 26 109 0.0 9.7 0.00 0.00 0.00 39 1011.2
20260507090004 26 104 1.6 11.3 0.00 0.00 0.00 39 1011.0
20260507085903 26 104 1.6 11.3 0.00 0.00 0.00 38 1011.1
20260507085803 26 104 1.6 11.3 0.00 0.00 0.00 39 1011.2
20260507085703 26 103 1.6 11.3 0.00 0.00 0.00 39 1011.3
20260507085603 26 104 1.6 11.3 0.00 0.00 0.00 39 1011.3
20260507085503 26 104 1.6 11.3 0.00 0.00 0.00 39 1011.2
20260507085403 26 104 1.6 11.3 0.00 0.00 0.00 39 1011.2
20260507085306 26 106 1.6 11.3 0.00 0.00 0.00 39 1011.2
20260507085203 26 108 1.6 11.3 0.00 0.00 0.00 39 1011.2
20260507085103 26 109 1.6 11.3 0.00 0.00 0.00 38 1011.3
20260507085003 26 114 1.6 6.4 0.00 0.00 0.00 39 1011.3
20260507084903 26 114 1.6 6.4 0.00 0.00 0.00 39 1011.3
20260507084803 26 114 1.6 6.4 0.00 0.00 0.00 39 1011.4
20260507084703 26 117 1.6 6.4 0.00 0.00 0.00 40 1011.4
20260507084603 26 118 0.0 4.8 0.00 0.00 0.00 40 1011.4
20260507084503 26 118 0.0 4.8 0.00 0.00 0.00 40 1011.4
20260507084403 26 121 0.0 4.8 0.00 0.00 0.00 40 1011.5
20260507084303 26 118 0.0 4.8 0.00 0.00 0.00 40 1011.6
20260507084204 26 118 0.0 4.8 0.00 0.00 0.00 40 1011.6
20260507084104 26 114 0.0 4.8 0.00 0.00 0.00 40 1011.6
20260507084004 26 112 1.6 8.0 0.00 0.00 0.00 40 1011.6
20260507083904 25 111 1.6 8.0 0.00 0.00 0.00 40 1011.6
20260507083804 25 111 1.6 8.0 0.00 0.00 0.00 40 1011.6
20260507083704 25 112 1.6 8.0 0.00 0.00 0.00 40 1011.6
20260507083604 25 112 1.6 8.0 0.00 0.00 0.00 41 1011.6
20260507083504 25 113 1.6 8.0 0.00 0.00 0.00 41 1011.6
20260507083404 25 113 1.6 8.0 0.00 0.00 0.00 41 1011.5
20260507083304 25 112 1.6 8.0 0.00 0.00 0.00 40 1011.6
20260507083204 26 111 1.6 8.0 0.00 0.00 0.00 40 1011.6
20260507083104 26 110 1.6 8.0 0.00 0.00 0.00 40 1011.6
20260507083004 26 110 1.6 6.4 0.00 0.00 0.00 40 1011.8
20260507082904 26 112 1.6 6.4 0.00 0.00 0.00 40 1011.7
20260507082804 26 112 1.6 6.4 0.00 0.00 0.00 40 1011.7
20260507082704 26 110 1.6 6.4 0.00 0.00 0.00 41 1011.7
20260507082604 26 109 1.6 6.4 0.00 0.00 0.00 41 1011.7
20260507082504 26 106 1.6 6.4 0.00 0.00 0.00 41 1011.7
20260507082404 26 109 1.6 6.4 0.00 0.00 0.00 41 1011.6
20260507082306 26 111 0.0 6.4 0.00 0.00 0.00 42 1011.7
20260507082204 26 112 0.0 6.4 0.00 0.00 0.00 41 1011.7
20260507082104 26 114 0.0 6.4 0.00 0.00 0.00 41 1011.7
20260507082004 26 112 0.0 6.4 0.00 0.00 0.00 41 1011.7
20260507081904 26 107 0.0 6.4 0.00 0.00 0.00 41 1011.8
20260507081804 26 104 0.0 6.4 0.00 0.00 0.00 42 1011.8
20260507081704 26 105 1.6 6.4 0.00 0.00 0.00 42 1011.7
20260507081604 26 106 1.6 6.4 0.00 0.00 0.00 41 1011.8
20260507081504 26 108 1.6 6.4 0.00 0.00 0.00 41 1011.8
20260507081404 26 108 1.6 4.8 0.00 0.00 0.00 41 1011.7
20260507081304 26 110 1.6 4.8 0.00 0.00 0.00 41 1011.7
20260507081204 26 111 1.6 4.8 0.00 0.00 0.00 41 1011.7
20260507081104 26 108 1.6 4.8 0.00 0.00 0.00 41 1011.8
20260507081004 26 109 1.6 4.8 0.00 0.00 0.00 41 1011.8
20260507080904 26 112 1.6 4.8 0.00 0.00 0.00 41 1011.9
20260507080804 26 114 1.6 4.8 0.00 0.00 0.00 41 1011.8
20260507080703 26 113 1.6 4.8 0.00 0.00 0.00 41 1011.9
20260507080603 26 113 1.6 4.8 0.00 0.00 0.00 40 1012.0
20260507080503 26 111 0.0 4.8 0.00 0.00 0.00 41 1011.9
20260507080404 26 111 0.0 4.8 0.00 0.00 0.00 40 1011.8
20260507080303 26 107 0.0 4.8 0.00 0.00 0.00 40 1011.8
20260507080204 26 102 0.0 4.8 0.00 0.00 0.00 41 1011.9
20260507080103 26 109 0.0 8.0 0.00 0.00 0.00 41 1011.9
20260507080004 26 105 0.0 8.0 0.00 0.00 0.00 41 1012.0
20260507075903 26 106 0.0 8.0 0.00 0.00 0.00 41 1012.0
20260507075803 26 108 1.6 8.0 0.00 0.00 0.00 40 1012.0
20260507075703 26 106 1.6 8.0 0.00 0.00 0.00 41 1012.0
20260507075603 26 105 1.6 8.0 0.00 0.00 0.00 41 1012.1
20260507075503 26 105 1.6 8.0 0.00 0.00 0.00 41 1012.2
20260507075403 26 106 1.6 8.0 0.00 0.00 0.00 40 1012.1
20260507075306 26 106 1.6 8.0 0.00 0.00 0.00 40 1012.1
20260507075203 26 106 1.6 8.0 0.00 0.00 0.00 41 1012.0
20260507075103 26 104 1.6 8.0 0.00 0.00 0.00 40 1012.1
20260507075003 26 106 1.6 8.0 0.00 0.00 0.00 40 1012.2
20260507074903 26 105 1.6 8.0 0.00 0.00 0.00 40 1012.2
20260507074803 26 101 0.0 6.4 0.00 0.00 0.00 41 1012.2
20260507074703 26 106 0.0 3.2 0.00 0.00 0.00 41 1012.3
20260507074603 26 106 0.0 3.2 0.00 0.00 0.00 42 1012.3
20260507074503 26 105 0.0 8.0 0.00 0.00 0.00 42 1012.3
20260507074403 26 105 0.0 8.0 0.00 0.00 0.00 42 1012.3
20260507074303 26 100 0.0 8.0 0.00 0.00 0.00 42 1012.3
20260507074203 26 100 0.0 8.0 0.00 0.00 0.00 42 1012.4
20260507074103 25 101 0.0 8.0 0.00 0.00 0.00 42 1012.3
20260507074003 25 101 0.0 8.0 0.00 0.00 0.00 43 1012.4
20260507073903 25 103 1.6 8.0 0.00 0.00 0.00 43 1012.5
20260507073803 25 103 1.6 8.0 0.00 0.00 0.00 43 1012.5
20260507073703 25 104 1.6 8.0 0.00 0.00 0.00 43 1012.6
20260507073603 25 105 1.6 8.0 0.00 0.00 0.00 43 1012.6
20260507073503 25 107 1.6 8.0 0.00 0.00 0.00 45 1012.6
20260507073403 25 109 1.6 6.4 0.00 0.00 0.00 45 1012.6
20260507073303 25 112 1.6 6.4 0.00 0.00 0.00 45 1012.6
20260507073203 25 114 1.6 6.4 0.00 0.00 0.00 45 1012.7
20260507073103 25 115 1.6 6.4 0.00 0.00 0.00 45 1012.4
20260507073004 25 116 1.6 6.4 0.00 0.00 0.00 45 1012.5
20260507072903 25 117 1.6 6.4 0.00 0.00 0.00 45 1012.5
20260507072803 25 117 1.6 6.4 0.00 0.00 0.00 45 1012.6
20260507072703 25 119 1.6 6.4 0.00 0.00 0.00 45 1012.6
20260507072603 25 119 1.6 6.4 0.00 0.00 0.00 45 1012.6
20260507072503 25 121 1.6 6.4 0.00 0.00 0.00 46 1012.6
20260507072403 25 122 0.0 6.4 0.00 0.00 0.00 46 1012.6
20260507072306 25 120 0.0 6.4 0.00 0.00 0.00 46 1012.7
20260507072203 25 123 0.0 6.4 0.00 0.00 0.00 46 1012.7
20260507072103 25 117 1.6 6.4 0.00 0.00 0.00 47 1012.6
20260507072003 24 115 1.6 4.8 0.00 0.00 0.00 48 1012.7
20260507071903 24 114 0.0 4.8 0.00 0.00 0.00 48 1012.8
20260507071803 24 113 0.0 4.8 0.00 0.00 0.00 49 1012.7
20260507071703 24 110 1.6 6.4 0.00 0.00 0.00 48 1012.8
20260507071604 24 112 1.6 6.4 0.00 0.00 0.00 48 1012.8
20260507071504 23 111 1.6 6.4 0.00 0.00 0.00 48 1012.9
20260507071403 23 111 1.6 6.4 0.00 0.00 0.00 49 1012.8
20260507071303 23 112 1.6 6.4 0.00 0.00 0.00 49 1012.9
20260507071203 23 112 1.6 6.4 0.00 0.00 0.00 50 1012.9
20260507071103 23 113 0.0 6.4 0.00 0.00 0.00 50 1012.7
20260507071003 23 109 1.6 6.4 0.00 0.00 0.00 51 1012.8
20260507070903 23 110 1.6 6.4 0.00 0.00 0.00 51 1012.8
20260507070803 0 108 1.6 9.7 0.00 0.00 0.00 51 1012.7
20260507070703 22 113 1.6 9.7 0.00 0.00 0.00 53 1012.9
20260507070603 22 110 1.6 9.7 0.00 0.00 0.00 54 1012.9
20260507070503 22 109 0.0 9.7 0.00 0.00 0.00 55 1012.8
20260507070403 22 109 0.0 9.7 0.00 0.00 0.00 56 1012.9
20260507070303 22 108 0.0 9.7 0.00 0.00 0.00 56 1012.9
20260507070203 22 108 0.0 9.7 0.00 0.00 0.00 56 1012.8
20260507070006 21 118 0.0 9.7 0.00 0.00 0.00 60 1012.9
20260507065903 21 122 0.0 9.7 0.00 0.00 0.00 61 1012.8
20260507065803 21 117 0.0 9.7 0.00 0.00 0.00 64 1012.9
20260507065703 21 0 0.0 0.0 0.00 0.00 0.00 65 1012.9
20260507065603 21 0 0.0 0.0 0.00 0.00 0.00 66 1013.0
20260507065503 20 0 0.0 0.0 0.00 0.00 0.00 66 1013.0
20260507065403 20 292 0.0 6.4 0.00 0.00 0.00 67 1013.1
20260507065306 20 292 0.0 6.4 0.00 0.00 0.00 67 1013.1
20260507065203 20 292 0.0 6.4 0.00 0.00 0.00 68 1013.3
20260507065103 20 286 0.0 8.0 0.00 0.00 0.00 68 1013.3
20260507065003 20 291 1.6 8.0 0.00 0.00 0.00 68 1013.1
20260507064903 20 291 1.6 8.0 0.00 0.00 0.00 68 1013.2
20260507064803 19 291 1.6 8.0 0.00 0.00 0.00 68 1013.2
20260507064703 19 291 1.6 8.0 0.00 0.00 0.00 68 1013.1
20260507064603 19 291 1.6 8.0 0.00 0.00 0.00 69 1013.1
20260507064503 19 291 1.6 8.0 0.00 0.00 0.00 70 1013.0
20260507064403 18 291 1.6 9.7 0.00 0.00 0.00 71 1013.1
20260507064303 18 294 3.2 9.7 0.00 0.00 0.00 71 1013.1
20260507064203 18 292 3.2 12.9 0.00 0.00 0.00 71 1013.1
20260507064103 18 294 3.2 12.9 0.00 0.00 0.00 73 1013.2
20260507064003 18 293 3.2 12.9 0.00 0.00 0.00 73 1013.2
20260507063903 18 293 3.2 12.9 0.00 0.00 0.00 73 1013.3
20260507063803 18 293 3.2 12.9 0.00 0.00 0.00 73 1013.2
20260507063703 18 294 3.2 12.9 0.00 0.00 0.00 73 1013.3
20260507063603 18 294 3.2 12.9 0.00 0.00 0.00 73 1013.3
20260507063503 18 294 4.8 12.9 0.00 0.00 0.00 73 1013.4
20260507063403 18 294 4.8 12.9 0.00 0.00 0.00 73 1013.4
20260507063303 18 291 3.2 12.9 0.00 0.00 0.00 73 1013.4
20260507063203 18 291 3.2 9.7 0.00 0.00 0.00 73 1013.4
20260507063103 18 291 3.2 9.7 0.00 0.00 0.00 73 1013.4
20260507063003 18 290 3.2 9.7 0.00 0.00 0.00 73 1013.5
20260507062903 18 290 3.2 9.7 0.00 0.00 0.00 73 1013.5
20260507062803 18 290 3.2 9.7 0.00 0.00 0.00 73 1013.5
20260507062703 18 288 3.2 9.7 0.00 0.00 0.00 73 1013.6
20260507062603 18 288 1.6 9.7 0.00 0.00 0.00 73 1013.5
20260507062503 18 286 1.6 8.0 0.00 0.00 0.00 73 1013.6
20260507062403 18 286 1.6 8.0 0.00 0.00 0.00 73 1013.5
20260507062306 18 287 1.6 8.0 0.00 0.00 0.00 73 1013.5
20260507062203 18 291 1.6 8.0 0.00 0.00 0.00 73 1013.5
20260507062104 18 292 1.6 8.0 0.00 0.00 0.00 73 1013.5
20260507062004 18 293 1.6 8.0 0.00 0.00 0.00 73 1013.4
20260507061904 18 293 0.0 8.0 0.00 0.00 0.00 73 1013.5
20260507061804 18 293 0.0 3.2 0.00 0.00 0.00 73 1013.5
20260507061704 18 293 0.0 3.2 0.00 0.00 0.00 73 1013.5
20260507061604 18 293 0.0 3.2 0.00 0.00 0.00 73 1013.5
20260507061504 18 302 0.0 3.2 0.00 0.00 0.00 73 1013.5
20260507061404 18 330 0.0 3.2 0.00 0.00 0.00 73 1013.6
20260507061304 18 112 0.0 3.2 0.00 0.00 0.00 73 1013.6
20260507061204 18 112 0.0 3.2 0.00 0.00 0.00 73 1013.6
20260507061104 18 107 0.0 3.2 0.00 0.00 0.00 73 1013.6
20260507061004 18 107 0.0 3.2 0.00 0.00 0.00 73 1013.6
20260507060904 18 107 0.0 3.2 0.00 0.00 0.00 73 1013.5
20260507060804 18 107 0.0 3.2 0.00 0.00 0.00 73 1013.6
20260507060704 18 107 0.0 3.2 0.00 0.00 0.00 73 1013.5
20260507060604 18 107 0.0 3.2 0.00 0.00 0.00 73 1013.5
20260507060504 18 107 0.0 3.2 0.00 0.00 0.00 73 1013.4
20260507060404 18 106 0.0 3.2 0.00 0.00 0.00 74 1013.4
20260507060304 18 101 0.0 1.6 0.00 0.00 0.00 74 1013.4
20260507060204 18 101 0.0 1.6 0.00 0.00 0.00 74 1013.4
20260507060104 18 0 0.0 0.0 0.00 0.00 0.00 74 1013.4
20260507060004 18 0 0.0 0.0 0.00 0.00 0.00 74 1013.5
20260507055904 18 0 0.0 0.0 0.00 0.00 0.00 74 1013.5
20260507055804 18 0 0.0 0.0 0.00 0.00 0.00 74 1013.5
20260507055704 18 0 0.0 0.0 0.00 0.00 0.00 74 1013.5
20260507055604 18 0 0.0 0.0 0.00 0.00 0.00 74 1013.5
20260507055504 18 0 0.0 0.0 0.00 0.00 0.00 74 1013.5
20260507055404 18 0 0.0 0.0 0.00 0.00 0.00 74 1013.5
20260507055306 18 0 0.0 0.0 0.00 0.00 0.00 74 1013.5
20260507055204 18 0 0.0 0.0 0.00 0.00 0.00 74 1013.6
20260507055104 18 0 0.0 0.0 0.00 0.00 0.00 74 1013.6
20260507055004 18 0 0.0 0.0 0.00 0.00 0.00 74 1013.6
20260507054904 18 0 0.0 0.0 0.00 0.00 0.00 74 1013.6
20260507054804 18 0 0.0 0.0 0.00 0.00 0.00 74 1013.6
20260507054704 18 0 0.0 0.0 0.00 0.00 0.00 74 1013.5
20260507054604 18 0 0.0 0.0 0.00 0.00 0.00 74 1013.5
20260507054504 18 0 0.0 0.0 0.00 0.00 0.00 74 1013.6
20260507054404 18 0 0.0 0.0 0.00 0.00 0.00 74 1013.6
20260507054304 18 0 0.0 0.0 0.00 0.00 0.00 75 1013.5
20260507054204 18 0 0.0 0.0 0.00 0.00 0.00 75 1013.5
20260507054104 18 112 0.0 1.6 0.00 0.00 0.00 75 1013.6
20260507054004 18 112 0.0 3.2 0.00 0.00 0.00 75 1013.5
20260507053904 18 112 0.0 3.2 0.00 0.00 0.00 75 1013.7
20260507053804 18 112 0.0 4.8 0.00 0.00 0.00 75 1013.6
20260507053704 18 112 1.6 4.8 0.00 0.00 0.00 75 1013.6
20260507053604 18 112 1.6 6.4 0.00 0.00 0.00 75 1013.6
20260507053504 18 112 1.6 6.4 0.00 0.00 0.00 75 1013.5
20260507053404 18 112 1.6 6.4 0.00 0.00 0.00 75 1013.5
20260507053303 18 112 1.6 6.4 0.00 0.00 0.00 75 1013.6
20260507053204 18 112 1.6 6.4 0.00 0.00 0.00 75 1013.6
20260507053104 18 112 1.6 6.4 0.00 0.00 0.00 75 1013.7
20260507053004 18 112 1.6 6.4 0.00 0.00 0.00 75 1013.6
20260507052903 18 112 1.6 6.4 0.00 0.00 0.00 76 1013.7
20260507052803 18 112 1.6 6.4 0.00 0.00 0.00 76 1013.6
20260507052703 18 112 0.0 6.4 0.00 0.00 0.00 76 1013.7
20260507052604 18 112 0.0 4.8 0.00 0.00 0.00 77 1013.6
20260507052504 18 112 0.0 4.8 0.00 0.00 0.00 77 1013.6
20260507052403 18 112 0.0 4.8 0.00 0.00 0.00 77 1013.5
20260507052306 18 112 0.0 4.8 0.00 0.00 0.00 77 1013.6
20260507052203 18 112 0.0 4.8 0.00 0.00 0.00 77 1013.7
20260507052103 17 112 0.0 4.8 0.00 0.00 0.00 77 1013.6
20260507052003 17 112 0.0 4.8 0.00 0.00 0.00 77 1013.6
20260507051903 17 112 0.0 4.8 0.00 0.00 0.00 77 1013.6
20260507051804 17 0 0.0 0.0 0.00 0.00 0.00 77 1013.7
20260507051703 17 0 0.0 0.0 0.00 0.00 0.00 77 1013.7
20260507051603 17 0 0.0 0.0 0.00 0.00 0.00 77 1013.7
20260507051503 17 0 0.0 0.0 0.00 0.00 0.00 77 1013.7
20260507051403 17 0 0.0 0.0 0.00 0.00 0.00 77 1013.8
20260507051303 17 0 0.0 0.0 0.00 0.00 0.00 77 1013.8
20260507051203 17 105 0.0 4.8 0.00 0.00 0.00 77 1013.8
20260507051103 17 108 0.0 4.8 0.00 0.00 0.00 77 1013.8
20260507051003 17 109 0.0 4.8 0.00 0.00 0.00 77 1013.8
20260507050903 17 109 0.0 4.8 0.00 0.00 0.00 77 1013.8
20260507050803 17 109 0.0 4.8 0.00 0.00 0.00 77 1013.9
20260507050703 17 109 0.0 4.8 0.00 0.00 0.00 77 1013.8
20260507050603 17 109 0.0 4.8 0.00 0.00 0.00 77 1013.8
20260507050503 17 109 0.0 4.8 0.00 0.00 0.00 77 1013.8
20260507050403 17 109 0.0 4.8 0.00 0.00 0.00 77 1013.8
20260507050303 17 109 0.0 4.8 0.00 0.00 0.00 77 1013.7
20260507050203 17 112 0.0 4.8 0.00 0.00 0.00 78 1013.7
20260507050103 17 112 0.0 3.2 0.00 0.00 0.00 78 1013.7
20260507050003 17 112 0.0 1.6 0.00 0.00 0.00 78 1013.7
20260507045903 17 112 0.0 3.2 0.00 0.00 0.00 78 1013.7
20260507045803 17 101 0.0 3.2 0.00 0.00 0.00 78 1013.8
20260507045703 17 101 0.0 3.2 0.00 0.00 0.00 78 1013.7
20260507045603 17 100 0.0 3.2 0.00 0.00 0.00 78 1013.7
20260507045503 17 100 0.0 3.2 0.00 0.00 0.00 78 1013.7
20260507045403 17 100 0.0 3.2 0.00 0.00 0.00 78 1013.7
20260507045306 17 97 0.0 3.2 0.00 0.00 0.00 78 1013.7
20260507045203 17 96 0.0 3.2 0.00 0.00 0.00 78 1013.7
20260507045103 17 94 0.0 3.2 0.00 0.00 0.00 78 1013.7
20260507045003 17 94 0.0 3.2 0.00 0.00 0.00 79 1013.7
20260507044903 17 90 0.0 3.2 0.00 0.00 0.00 79 1013.7
20260507044803 17 89 0.0 3.2 0.00 0.00 0.00 79 1013.8
20260507044703 17 89 0.0 3.2 0.00 0.00 0.00 79 1013.8
20260507044603 17 89 0.0 3.2 0.00 0.00 0.00 79 1013.8
20260507044503 17 89 0.0 3.2 0.00 0.00 0.00 79 1013.8
20260507044403 17 89 0.0 3.2 0.00 0.00 0.00 80 1013.8
20260507044303 17 101 0.0 3.2 0.00 0.00 0.00 80 1013.8
20260507044203 17 112 0.0 3.2 0.00 0.00 0.00 80 1013.9
20260507044103 17 112 0.0 3.2 0.00 0.00 0.00 80 1014.0
20260507044003 17 112 0.0 3.2 0.00 0.00 0.00 80 1013.9
20260507043903 17 112 0.0 3.2 0.00 0.00 0.00 80 1013.9
20260507043803 17 112 0.0 3.2 0.00 0.00 0.00 80 1013.9
20260507043703 17 108 0.0 4.8 0.00 0.00 0.00 80 1013.8
20260507043603 17 110 0.0 4.8 0.00 0.00 0.00 80 1013.8
20260507043503 17 110 0.0 4.8 0.00 0.00 0.00 80 1013.9
20260507043403 17 107 0.0 4.8 0.00 0.00 0.00 80 1013.9
20260507043303 17 106 0.0 4.8 0.00 0.00 0.00 80 1013.9
20260507043203 17 106 0.0 4.8 0.00 0.00 0.00 80 1013.9
20260507043103 17 106 0.0 4.8 0.00 0.00 0.00 80 1013.9
20260507043003 17 106 0.0 4.8 0.00 0.00 0.00 80 1013.8
20260507042903 17 104 0.0 4.8 0.00 0.00 0.00 80 1013.8
20260507042803 17 105 0.0 4.8 0.00 0.00 0.00 80 1013.8
20260507042703 17 105 0.0 4.8 0.00 0.00 0.00 80 1013.8
20260507042603 17 101 0.0 3.2 0.00 0.00 0.00 80 1013.9
20260507042503 17 88 0.0 4.8 0.00 0.00 0.00 80 1014.0
20260507042403 17 87 0.0 4.8 0.00 0.00 0.00 80 1014.1
20260507042306 17 95 0.0 4.8 0.00 0.00 0.00 80 1014.0
20260507042203 17 97 0.0 4.8 0.00 0.00 0.00 80 1014.0
20260507042103 17 96 0.0 4.8 0.00 0.00 0.00 80 1013.8
20260507042003 17 96 0.0 4.8 0.00 0.00 0.00 80 1013.9
20260507041903 17 97 0.0 4.8 0.00 0.00 0.00 80 1013.8
20260507041803 17 95 0.0 4.8 0.00 0.00 0.00 80 1013.8
20260507041703 17 95 0.0 4.8 0.00 0.00 0.00 80 1013.8
20260507041603 17 95 0.0 4.8 0.00 0.00 0.00 80 1013.9
20260507041503 17 112 0.0 3.2 0.00 0.00 0.00 80 1013.8
20260507041403 17 112 0.0 3.2 0.00 0.00 0.00 79 1013.8
20260507041303 17 112 0.0 3.2 0.00 0.00 0.00 79 1013.9
20260507041203 17 112 0.0 1.6 0.00 0.00 0.00 79 1014.0
20260507041103 17 0 0.0 0.0 0.00 0.00 0.00 79 1014.0
20260507041003 17 0 0.0 0.0 0.00 0.00 0.00 79 1013.9
20260507040903 17 0 0.0 0.0 0.00 0.00 0.00 79 1013.9
20260507040803 17 0 0.0 0.0 0.00 0.00 0.00 79 1013.9
20260507040703 17 0 0.0 0.0 0.00 0.00 0.00 79 1013.9
20260507040603 17 0 0.0 0.0 0.00 0.00 0.00 79 1013.9
20260507040503 17 0 0.0 0.0 0.00 0.00 0.00 78 1014.0
20260507040403 17 0 0.0 0.0 0.00 0.00 0.00 78 1014.0
20260507040303 17 0 0.0 0.0 0.00 0.00 0.00 78 1014.0
20260507040203 17 0 0.0 0.0 0.00 0.00 0.00 78 1014.0
20260507040003 17 0 0.0 0.0 0.00 0.00 0.00 78 1014.0
20260507035903 17 0 0.0 0.0 0.00 0.00 0.00 78 1014.0
20260507035803 17 0 0.0 0.0 0.00 0.00 0.00 78 1014.0
20260507035703 17 0 0.0 0.0 0.00 0.00 0.00 77 1013.9
20260507035603 17 131 0.0 6.4 0.00 0.00 0.00 77 1013.9
20260507035503 17 131 0.0 6.4 0.00 0.00 0.00 77 1013.9
20260507035403 17 131 0.0 6.4 0.00 0.00 0.00 76 1013.8
20260507035306 17 131 0.0 6.4 0.00 0.00 0.00 76 1013.8
20260507035203 17 131 0.0 6.4 0.00 0.00 0.00 76 1013.8
20260507035103 17 131 0.0 6.4 0.00 0.00 0.00 76 1013.7
20260507035003 17 131 0.0 6.4 0.00 0.00 0.00 76 1013.8
20260507034903 17 131 0.0 6.4 0.00 0.00 0.00 75 1013.8
20260507034803 17 131 0.0 6.4 0.00 0.00 0.00 75 1013.7
20260507034703 17 131 0.0 6.4 0.00 0.00 0.00 74 1013.7
20260507034603 17 135 0.0 3.2 0.00 0.00 0.00 74 1013.7
20260507034503 17 135 0.0 3.2 0.00 0.00 0.00 74 1013.8
20260507034404 17 135 0.0 3.2 0.00 0.00 0.00 74 1013.7
20260507034303 17 135 0.0 3.2 0.00 0.00 0.00 74 1013.7
20260507034203 17 135 0.0 3.2 0.00 0.00 0.00 73 1013.7
20260507034103 17 135 0.0 3.2 0.00 0.00 0.00 73 1013.7
20260507034003 17 135 0.0 3.2 0.00 0.00 0.00 73 1013.6
20260507033903 17 135 0.0 3.2 0.00 0.00 0.00 73 1013.6
20260507033803 17 135 0.0 3.2 0.00 0.00 0.00 73 1013.6
20260507033703 17 135 0.0 3.2 0.00 0.00 0.00 72 1013.5
20260507033603 17 0 0.0 0.0 0.00 0.00 0.00 72 1013.6
20260507033503 17 0 0.0 0.0 0.00 0.00 0.00 72 1013.7
20260507033403 17 0 0.0 0.0 0.00 0.00 0.00 71 1013.5
20260507033303 17 0 0.0 0.0 0.00 0.00 0.00 71 1013.7
20260507033203 17 0 0.0 0.0 0.00 0.00 0.00 71 1013.7
20260507033103 17 0 0.0 0.0 0.00 0.00 0.00 71 1013.5
20260507033003 17 0 0.0 0.0 0.00 0.00 0.00 71 1013.6
20260507032903 17 0 0.0 0.0 0.00 0.00 0.00 70 1013.7
20260507032804 17 0 0.0 0.0 0.00 0.00 0.00 70 1013.7
20260507032704 17 0 0.0 0.0 0.00 0.00 0.00 70 1013.7
20260507032604 17 0 0.0 0.0 0.00 0.00 0.00 70 1013.7
20260507032504 17 0 0.0 0.0 0.00 0.00 0.00 70 1013.6
20260507032404 17 0 0.0 0.0 0.00 0.00 0.00 70 1013.7
20260507032306 17 0 0.0 0.0 0.00 0.00 0.00 70 1013.5
20260507032204 17 0 0.0 0.0 0.00 0.00 0.00 70 1013.5
20260507032104 17 0 0.0 0.0 0.00 0.00 0.00 70 1013.4
20260507032004 17 0 0.0 0.0 0.00 0.00 0.00 70 1013.4
20260507031904 17 0 0.0 0.0 0.00 0.00 0.00 70 1013.5
20260507031804 17 0 0.0 0.0 0.00 0.00 0.00 70 1013.6
20260507031704 17 0 0.0 0.0 0.00 0.00 0.00 70 1013.6
20260507031604 17 0 0.0 0.0 0.00 0.00 0.00 70 1013.5
20260507031504 17 0 0.0 0.0 0.00 0.00 0.00 70 1013.5
20260507031404 17 0 0.0 0.0 0.00 0.00 0.00 70 1013.5
20260507031304 17 0 0.0 0.0 0.00 0.00 0.00 70 1013.4
20260507031204 17 0 0.0 0.0 0.00 0.00 0.00 70 1013.5
20260507031104 17 0 0.0 0.0 0.00 0.00 0.00 70 1013.5
20260507031004 17 0 0.0 0.0 0.00 0.00 0.00 70 1013.4
20260507030904 17 0 0.0 0.0 0.00 0.00 0.00 70 1013.5
20260507030804 17 0 0.0 0.0 0.00 0.00 0.00 70 1013.6
20260507030704 17 0 0.0 0.0 0.00 0.00 0.00 70 1013.6
20260507030604 17 0 0.0 0.0 0.00 0.00 0.00 71 1013.6
20260507030504 17 0 0.0 0.0 0.00 0.00 0.00 71 1013.5
20260507030404 17 0 0.0 0.0 0.00 0.00 0.00 71 1013.6
20260507030304 17 0 0.0 0.0 0.00 0.00 0.00 71 1013.7
20260507030204 17 0 0.0 0.0 0.00 0.00 0.00 72 1013.6
20260507030104 17 0 0.0 0.0 0.00 0.00 0.00 72 1013.5
20260507030004 17 0 0.0 0.0 0.00 0.00 0.00 72 1013.5
20260507025904 18 0 0.0 0.0 0.00 0.00 0.00 72 1013.5
20260507025804 17 0 0.0 0.0 0.00 0.00 0.00 72 1013.5
20260507025704 17 0 0.0 0.0 0.00 0.00 0.00 72 1013.4
20260507025604 17 0 0.0 0.0 0.00 0.00 0.00 73 1013.4
20260507025504 17 0 0.0 0.0 0.00 0.00 0.00 73 1013.4
20260507025404 17 0 0.0 0.0 0.00 0.00 0.00 73 1013.4
20260507025306 17 0 0.0 0.0 0.00 0.00 0.00 73 1013.4
20260507025204 17 0 0.0 0.0 0.00 0.00 0.00 73 1013.5
20260507025104 17 0 0.0 0.0 0.00 0.00 0.00 73 1013.6
20260507025004 17 0 0.0 0.0 0.00 0.00 0.00 73 1013.6
20260507024904 17 0 0.0 0.0 0.00 0.00 0.00 73 1013.6
20260507024804 17 0 0.0 0.0 0.00 0.00 0.00 73 1013.5
20260507024703 17 0 0.0 0.0 0.00 0.00 0.00 73 1013.5
20260507024603 17 112 0.0 1.6 0.00 0.00 0.00 73 1013.4
20260507024504 17 112 0.0 1.6 0.00 0.00 0.00 73 1013.3
20260507024404 17 112 0.0 3.2 0.00 0.00 0.00 73 1013.3
20260507024304 17 112 0.0 3.2 0.00 0.00 0.00 73 1013.2
20260507024203 17 112 0.0 3.2 0.00 0.00 0.00 74 1013.1
20260507024103 17 112 0.0 3.2 0.00 0.00 0.00 74 1013.2
20260507024003 17 112 0.0 3.2 0.00 0.00 0.00 74 1013.1
20260507023903 17 112 0.0 3.2 0.00 0.00 0.00 74 1013.1
20260507023803 17 112 0.0 3.2 0.00 0.00 0.00 74 1013.1
20260507023703 17 112 0.0 3.2 0.00 0.00 0.00 75 1013.2
20260507023603 17 112 0.0 3.2 0.00 0.00 0.00 75 1013.3
20260507023503 17 112 0.0 3.2 0.00 0.00 0.00 75 1013.3
20260507023403 17 0 0.0 0.0 0.00 0.00 0.00 75 1013.3
20260507023303 17 0 0.0 0.0 0.00 0.00 0.00 76 1013.4
20260507023203 17 0 0.0 0.0 0.00 0.00 0.00 76 1013.4
20260507023103 17 0 0.0 0.0 0.00 0.00 0.00 76 1013.4
20260507023004 17 112 0.0 3.2 0.00 0.00 0.00 76 1013.4
20260507022903 17 112 0.0 3.2 0.00 0.00 0.00 76 1013.5
20260507022803 17 112 0.0 3.2 0.00 0.00 0.00 76 1013.5
20260507022703 17 112 0.0 3.2 0.00 0.00 0.00 76 1013.5
20260507022603 17 112 0.0 3.2 0.00 0.00 0.00 76 1013.3
20260507022503 17 112 0.0 3.2 0.00 0.00 0.00 76 1013.2
20260507022403 17 112 0.0 3.2 0.00 0.00 0.00 77 1013.1
20260507022306 17 112 0.0 3.2 0.00 0.00 0.00 77 1013.1
20260507022203 17 112 0.0 3.2 0.00 0.00 0.00 77 1013.2
20260507022103 17 112 0.0 3.2 0.00 0.00 0.00 77 1013.4
20260507022003 17 0 0.0 0.0 0.00 0.00 0.00 77 1013.6
20260507021903 17 0 0.0 0.0 0.00 0.00 0.00 78 1013.5
20260507021803 17 0 0.0 0.0 0.00 0.00 0.00 78 1013.6
20260507021703 17 0 0.0 0.0 0.00 0.00 0.00 78 1013.5
20260507021603 17 0 0.0 0.0 0.00 0.00 0.00 78 1013.7
20260507021503 17 0 0.0 0.0 0.00 0.00 0.00 78 1013.7
20260507021404 17 0 0.0 0.0 0.00 0.00 0.00 78 1013.7
20260507021303 17 0 0.0 0.0 0.00 0.00 0.00 78 1013.6
20260507021203 17 0 0.0 0.0 0.00 0.00 0.00 78 1013.7
20260507021103 17 0 0.0 0.0 0.00 0.00 0.00 78 1013.7
20260507021003 17 0 0.0 0.0 0.00 0.00 0.00 78 1013.7
20260507020903 17 0 0.0 0.0 0.00 0.00 0.00 78 1013.6
20260507020803 17 0 0.0 0.0 0.00 0.00 0.00 78 1013.6
20260507020703 17 0 0.0 0.0 0.00 0.00 0.00 79 1013.7
20260507020603 17 0 0.0 0.0 0.00 0.00 0.00 79 1013.7
20260507020503 17 0 0.0 0.0 0.00 0.00 0.00 79 1013.6
20260507020403 17 0 0.0 0.0 0.00 0.00 0.00 79 1013.6
20260507020303 17 0 0.0 0.0 0.00 0.00 0.00 79 1013.7
20260507020203 17 0 0.0 0.0 0.00 0.00 0.00 79 1013.7
20260507020103 17 0 0.0 0.0 0.00 0.00 0.00 79 1013.7
20260507020003 17 0 0.0 0.0 0.00 0.00 0.00 79 1013.7
20260507015903 17 0 0.0 0.0 0.00 0.00 0.00 79 1013.6
20260507015803 17 135 0.0 1.6 0.00 0.00 0.00 79 1013.7
20260507015703 17 135 0.0 1.6 0.00 0.00 0.00 79 1013.6
20260507015603 17 135 0.0 1.6 0.00 0.00 0.00 80 1013.7
20260507015503 17 135 0.0 1.6 0.00 0.00 0.00 80 1013.6
20260507015403 17 135 0.0 1.6 0.00 0.00 0.00 80 1013.5
20260507015306 17 135 0.0 1.6 0.00 0.00 0.00 80 1013.4
20260507015203 17 135 0.0 1.6 0.00 0.00 0.00 80 1013.5
20260507015103 17 135 0.0 1.6 0.00 0.00 0.00 80 1013.5
20260507015003 17 135 0.0 1.6 0.00 0.00 0.00 80 1013.5
20260507014903 17 135 0.0 1.6 0.00 0.00 0.00 80 1013.5
20260507014803 17 135 0.0 1.6 0.00 0.00 0.00 80 1013.6
20260507014703 17 135 0.0 1.6 0.00 0.00 0.00 80 1013.6
20260507014603 17 135 0.0 3.2 0.00 0.00 0.00 80 1013.7
20260507014503 17 125 0.0 3.2 0.00 0.00 0.00 80 1013.6
20260507014403 17 125 0.0 3.2 0.00 0.00 0.00 80 1013.6
20260507014303 17 125 0.0 3.2 0.00 0.00 0.00 80 1013.6
20260507014203 17 125 0.0 3.2 0.00 0.00 0.00 80 1013.6
20260507014103 17 125 0.0 3.2 0.00 0.00 0.00 80 1013.5
20260507014003 17 123 0.0 3.2 0.00 0.00 0.00 80 1013.6
20260507013903 17 123 0.0 3.2 0.00 0.00 0.00 80 1013.6
20260507013803 17 123 0.0 3.2 0.00 0.00 0.00 79 1013.6
20260507013703 17 120 0.0 3.2 0.00 0.00 0.00 79 1013.7
20260507013603 17 112 0.0 3.2 0.00 0.00 0.00 79 1013.6
20260507013503 17 0 0.0 0.0 0.00 0.00 0.00 79 1013.7
20260507013403 17 0 0.0 0.0 0.00 0.00 0.00 79 1013.8
20260507013303 17 0 0.0 0.0 0.00 0.00 0.00 79 1013.7
20260507013203 17 0 0.0 0.0 0.00 0.00 0.00 79 1013.8
20260507013103 17 0 0.0 0.0 0.00 0.00 0.00 79 1013.8
20260507013003 17 0 0.0 0.0 0.00 0.00 0.00 79 1013.8
20260507012903 17 0 0.0 0.0 0.00 0.00 0.00 79 1013.8
20260507012803 17 0 0.0 0.0 0.00 0.00 0.00 79 1013.8
20260507012703 17 0 0.0 0.0 0.00 0.00 0.00 79 1013.9
20260507012603 17 0 0.0 0.0 0.00 0.00 0.00 79 1013.9
20260507012503 17 292 0.0 1.6 0.00 0.00 0.00 79 1013.9
20260507012403 17 292 0.0 1.6 0.00 0.00 0.00 79 1014.1
20260507012306 17 292 0.0 1.6 0.00 0.00 0.00 79 1014.0
20260507012203 17 292 0.0 1.6 0.00 0.00 0.00 79 1014.1
20260507012103 17 292 0.0 1.6 0.00 0.00 0.00 79 1013.9
20260507012003 17 292 0.0 1.6 0.00 0.00 0.00 79 1014.0
20260507011903 17 292 0.0 1.6 0.00 0.00 0.00 79 1013.9
20260507011803 17 292 0.0 1.6 0.00 0.00 0.00 79 1013.9
20260507011704 17 292 0.0 4.8 0.00 0.00 0.00 79 1014.1
20260507011604 17 292 0.0 4.8 0.00 0.00 0.00 79 1013.9
20260507011504 17 292 0.0 4.8 0.00 0.00 0.00 79 1013.9
20260507011404 17 292 0.0 4.8 0.00 0.00 0.00 79 1013.8
20260507011304 17 294 0.0 4.8 0.00 0.00 0.00 79 1013.8
20260507011204 17 294 0.0 4.8 0.00 0.00 0.00 79 1013.8
20260507011104 17 294 0.0 4.8 0.00 0.00 0.00 79 1013.8
20260507011004 17 294 0.0 4.8 0.00 0.00 0.00 79 1013.9
20260507010904 17 294 0.0 4.8 0.00 0.00 0.00 79 1013.9
20260507010804 17 294 0.0 4.8 0.00 0.00 0.00 79 1013.9
20260507010704 17 297 0.0 3.2 0.00 0.00 0.00 79 1013.9
20260507010604 17 297 0.0 3.2 0.00 0.00 0.00 79 1013.9
20260507010504 17 300 0.0 3.2 0.00 0.00 0.00 79 1014.0
20260507010404 17 300 0.0 3.2 0.00 0.00 0.00 79 1013.9
20260507010304 17 292 0.0 3.2 0.00 0.00 0.00 79 1014.0
20260507010204 17 292 0.0 3.2 0.00 0.00 0.00 79 1014.0
20260507010104 17 112 0.0 3.2 0.00 0.00 0.00 79 1013.9
20260507010004 17 112 0.0 3.2 0.00 0.00 0.00 79 1013.9
20260507005904 17 112 0.0 3.2 0.00 0.00 0.00 79 1013.9
20260507005804 17 112 0.0 3.2 0.00 0.00 0.00 79 1013.9
20260507005704 17 112 0.0 3.2 0.00 0.00 0.00 79 1014.1
20260507005604 17 112 0.0 3.2 0.00 0.00 0.00 79 1014.0
20260507005504 17 112 0.0 3.2 0.00 0.00 0.00 79 1014.0
20260507005404 17 112 0.0 3.2 0.00 0.00 0.00 79 1013.9
20260507005305 17 112 0.0 3.2 0.00 0.00 0.00 79 1013.9
20260507005204 17 112 0.0 3.2 0.00 0.00 0.00 79 1013.9
20260507005104 17 112 0.0 3.2 0.00 0.00 0.00 79 1013.8
20260507005004 17 109 0.0 6.4 0.00 0.00 0.00 79 1013.8
20260507004904 17 108 0.0 6.4 0.00 0.00 0.00 79 1013.9
20260507004804 17 105 0.0 6.4 0.00 0.00 0.00 79 1013.8
20260507004704 17 107 0.0 6.4 0.00 0.00 0.00 79 1013.8
20260507004604 17 106 0.0 6.4 0.00 0.00 0.00 79 1013.8
20260507004504 17 106 0.0 6.4 0.00 0.00 0.00 79 1013.8
20260507004404 17 106 0.0 6.4 0.00 0.00 0.00 79 1013.8
20260507004304 17 106 0.0 6.4 0.00 0.00 0.00 79 1013.8
20260507004204 17 107 0.0 6.4 0.00 0.00 0.00 79 1013.9
20260507004104 17 107 0.0 6.4 0.00 0.00 0.00 79 1013.9
20260507004004 17 107 0.0 6.4 0.00 0.00 0.00 79 1014.0
20260507003904 17 106 0.0 4.8 0.00 0.00 0.00 79 1013.9
20260507003804 17 110 0.0 3.2 0.00 0.00 0.00 79 1014.0
20260507003704 17 109 0.0 3.2 0.00 0.00 0.00 79 1014.0
20260507003604 17 115 0.0 1.6 0.00 0.00 0.00 79 1014.1
20260507003504 17 115 0.0 1.6 0.00 0.00 0.00 79 1014.1
20260507003404 17 117 0.0 1.6 0.00 0.00 0.00 79 1014.1
20260507003304 18 117 0.0 1.6 0.00 0.00 0.00 79 1014.1
20260507003203 18 119 0.0 1.6 0.00 0.00 0.00 79 1014.1
20260507003103 18 119 0.0 1.6 0.00 0.00 0.00 79 1014.1
20260507003004 17 120 0.0 1.6 0.00 0.00 0.00 79 1014.1
20260507002903 18 120 0.0 1.6 0.00 0.00 0.00 79 1014.2
20260507002803 18 124 0.0 1.6 0.00 0.00 0.00 79 1014.2
20260507002703 18 135 0.0 1.6 0.00 0.00 0.00 79 1014.3
20260507002603 18 135 0.0 1.6 0.00 0.00 0.00 79 1014.2
20260507002503 18 135 0.0 1.6 0.00 0.00 0.00 79 1014.3
20260507002403 18 0 0.0 0.0 0.00 0.00 0.00 79 1014.4
20260507002306 18 0 0.0 0.0 0.00 0.00 0.00 79 1014.3
20260507002203 18 0 0.0 0.0 0.00 0.00 0.00 79 1014.3
20260507002103 18 0 0.0 0.0 0.00 0.00 0.00 79 1014.3
20260507002003 18 0 0.0 0.0 0.00 0.00 0.00 79 1014.4
20260507001903 18 0 0.0 0.0 0.00 0.00 0.00 79 1014.5
20260507001803 18 0 0.0 0.0 0.00 0.00 0.00 79 1014.4
20260507001703 18 112 0.0 1.6 0.00 0.00 0.00 79 1014.4
20260507001603 18 112 0.0 1.6 0.00 0.00 0.00 79 1014.5
20260507001503 18 112 0.0 3.2 0.00 0.00 0.00 79 1014.5
20260507001403 18 112 0.0 3.2 0.00 0.00 0.00 79 1014.5
20260507001303 18 112 0.0 4.8 0.00 0.00 0.00 79 1014.4
20260507001203 18 112 0.0 4.8 0.00 0.00 0.00 79 1014.5
20260507001103 18 112 0.0 4.8 0.00 0.00 0.00 79 1014.5
20260507001003 18 112 0.0 4.8 0.00 0.00 0.00 79 1014.4
20260507000903 18 112 0.0 4.8 0.00 0.00 0.00 79 1014.4
20260507000803 18 112 0.0 4.8 0.00 0.00 0.00 79 1014.5
20260507000703 18 112 0.0 4.8 0.00 0.00 0.00 79 1014.5
20260507000603 18 112 0.0 4.8 0.00 0.00 0.00 79 1014.4
20260507000503 18 112 0.0 4.8 0.00 0.00 0.00 79 1014.4
20260507000405 18 112 0.0 4.8 0.00 0.00 0.00 79 1014.4
20260507000306 18 0 0.0 0.0 0.00 0.00 0.00 79 1014.4
20260507000205 18 0 0.0 0.0 0.00 0.00 0.00 79 1014.4
20260507000004 18 112 0.0 3.2 0.00 0.00 0.00 79 1014.4
20260506235903 18 112 0.0 3.2 0.00 0.00 0.00 79 1014.4
20260506235803 18 112 0.0 3.2 0.00 0.00 0.00 79 1014.4
20260506235703 18 112 0.0 3.2 0.00 0.00 0.00 79 1014.4
20260506235603 18 112 0.0 3.2 0.00 0.00 0.00 79 1014.4
20260506235503 18 112 0.0 3.2 0.00 0.00 0.00 79 1014.4
20260506235403 18 112 0.0 3.2 0.00 0.00 0.00 79 1014.3
20260506235306 18 112 0.0 3.2 0.00 0.00 0.00 79 1014.3
20260506235203 18 112 0.0 3.2 0.00 0.00 0.00 79 1014.4
20260506235103 18 112 0.0 3.2 0.00 0.00 0.00 79 1014.3
20260506235003 18 112 0.0 3.2 0.00 0.00 0.00 79 1014.3
20260506234903 18 104 0.0 3.2 0.00 0.00 0.00 79 1014.3
20260506234803 18 102 0.0 3.2 0.00 0.00 0.00 79 1014.4
20260506234703 18 108 0.0 6.4 0.00 0.00 0.00 79 1014.4
20260506234603 18 109 0.0 6.4 0.00 0.00 0.00 79 1014.4
20260506234503 18 113 0.0 6.4 0.00 0.00 0.00 79 1014.4
20260506234403 18 114 1.6 8.0 0.00 0.00 0.00 79 1014.4
20260506234303 18 114 0.0 8.0 0.00 0.00 0.00 79 1014.4
20260506234203 18 114 0.0 8.0 0.00 0.00 0.00 79 1014.5
20260506234103 18 113 1.6 8.0 0.00 0.00 0.00 79 1014.4
20260506234003 18 113 1.6 8.0 0.00 0.00 0.00 79 1014.4
20260506233903 18 115 1.6 8.0 0.00 0.00 0.00 79 1014.3
20260506233803 18 116 1.6 8.0 0.00 0.00 0.00 79 1014.3
20260506233703 18 114 0.0 8.0 0.00 0.00 0.00 79 1014.2
20260506233603 18 113 0.0 8.0 0.00 0.00 0.00 79 1014.2
20260506233503 18 109 0.0 8.0 0.00 0.00 0.00 79 1014.2
20260506233403 18 107 0.0 4.8 0.00 0.00 0.00 79 1014.1
20260506233303 18 106 0.0 4.8 0.00 0.00 0.00 79 1014.2
20260506233203 18 106 0.0 4.8 0.00 0.00 0.00 79 1014.1
20260506233103 18 106 0.0 4.8 0.00 0.00 0.00 79 1014.2
20260506233003 18 102 0.0 3.2 0.00 0.00 0.00 79 1014.1
20260506232903 18 104 0.0 3.2 0.00 0.00 0.00 78 1014.1
20260506232803 18 108 0.0 3.2 0.00 0.00 0.00 79 1014.0
20260506232703 18 107 0.0 3.2 0.00 0.00 0.00 78 1014.0
20260506232603 18 107 0.0 3.2 0.00 0.00 0.00 78 1014.0
20260506232503 18 107 0.0 3.2 0.00 0.00 0.00 78 1014.1
20260506232403 18 106 0.0 3.2 0.00 0.00 0.00 78 1014.0
20260506232306 18 109 0.0 3.2 0.00 0.00 0.00 78 1014.1
20260506232203 18 108 0.0 3.2 0.00 0.00 0.00 78 1014.0
20260506232103 18 110 0.0 3.2 0.00 0.00 0.00 78 1014.0
20260506232003 18 112 0.0 6.4 0.00 0.00 0.00 78 1014.1
20260506231903 18 108 0.0 6.4 0.00 0.00 0.00 78 1014.0
20260506231803 18 104 0.0 6.4 0.00 0.00 0.00 78 1014.0
20260506231703 18 105 0.0 6.4 0.00 0.00 0.00 77 1014.0
20260506231603 18 105 0.0 6.4 0.00 0.00 0.00 77 1013.8
20260506231503 18 90 0.0 6.4 0.00 0.00 0.00 77 1013.9
20260506231403 18 85 0.0 6.4 0.00 0.00 0.00 77 1013.9
20260506231303 18 85 0.0 6.4 0.00 0.00 0.00 77 1014.0
20260506231203 18 85 0.0 6.4 0.00 0.00 0.00 77 1013.9
20260506231004 18 104 0.0 6.4 0.00 0.00 0.00 76 1014.0
20260506230904 18 82 0.0 6.4 0.00 0.00 0.00 76 1014.0
20260506230803 18 63 0.0 6.4 0.00 0.00 0.00 76 1013.9
20260506230704 18 54 0.0 6.4 0.00 0.00 0.00 76 1013.9
20260506230604 18 37 0.0 6.4 0.00 0.00 0.00 76 1014.0
20260506230504 18 37 0.0 6.4 0.00 0.00 0.00 76 1013.9
20260506230403 18 50 0.0 6.4 0.00 0.00 0.00 76 1013.9
20260506230303 18 50 0.0 6.4 0.00 0.00 0.00 75 1013.9
20260506230203 18 61 0.0 6.4 0.00 0.00 0.00 75 1014.0
20260506230103 18 61 0.0 6.4 0.00 0.00 0.00 75 1013.8
20260506230004 18 51 0.0 6.4 0.00 0.00 0.00 74 1013.9
20260506225903 18 94 0.0 8.0 0.00 0.00 0.00 74 1013.9
20260506225803 18 105 0.0 8.0 0.00 0.00 0.00 74 1014.0
20260506225703 18 105 0.0 8.0 0.00 0.00 0.00 74 1013.9
20260506225603 18 99 0.0 8.0 0.00 0.00 0.00 74 1013.9
20260506225503 18 96 0.0 8.0 0.00 0.00 0.00 74 1013.8
20260506225403 18 104 0.0 8.0 0.00 0.00 0.00 73 1013.9
20260506225305 18 104 0.0 8.0 0.00 0.00 0.00 73 1013.8
20260506225203 18 99 0.0 8.0 0.00 0.00 0.00 73 1013.8
20260506225103 18 99 0.0 8.0 0.00 0.00 0.00 72 1013.8
20260506225003 18 115 0.0 8.0 0.00 0.00 0.00 71 1013.8
20260506224903 18 105 0.0 6.4 0.00 0.00 0.00 71 1013.8
20260506224803 18 187 0.0 6.4 0.00 0.00 0.00 71 1013.8
20260506224703 18 187 0.0 6.4 0.00 0.00 0.00 70 1013.9
20260506224603 18 166 0.0 6.4 0.00 0.00 0.00 70 1013.8
20260506224503 18 117 0.0 6.4 0.00 0.00 0.00 70 1013.8
20260506224403 18 118 0.0 6.4 0.00 0.00 0.00 70 1013.7
20260506224303 18 133 0.0 3.2 0.00 0.00 0.00 69 1013.7
20260506224203 18 136 0.0 4.8 0.00 0.00 0.00 69 1013.8
20260506224103 18 313 0.0 4.8 0.00 0.00 0.00 69 1013.7
20260506224003 18 83 0.0 4.8 0.00 0.00 0.00 69 1013.8
20260506223903 18 102 0.0 4.8 0.00 0.00 0.00 68 1013.6
20260506223803 18 109 0.0 4.8 0.00 0.00 0.00 68 1013.6
20260506223703 18 109 0.0 4.8 0.00 0.00 0.00 68 1013.7
20260506223603 18 106 0.0 4.8 0.00 0.00 0.00 68 1013.7
20260506223503 18 111 0.0 4.8 0.00 0.00 0.00 68 1013.6
20260506223403 18 108 0.0 4.8 0.00 0.00 0.00 67 1013.5
20260506223303 18 108 0.0 4.8 0.00 0.00 0.00 67 1013.5
20260506223203 18 105 0.0 4.8 0.00 0.00 0.00 67 1013.6
20260506223103 18 116 0.0 4.8 0.00 0.00 0.00 67 1013.5
20260506223003 18 118 0.0 3.2 0.00 0.00 0.00 67 1013.5
20260506222903 18 113 0.0 3.2 0.00 0.00 0.00 68 1013.4
20260506222803 18 118 0.0 4.8 0.00 0.00 0.00 68 1013.5
20260506222703 18 118 0.0 4.8 0.00 0.00 0.00 67 1013.5
20260506222603 18 120 0.0 4.8 0.00 0.00 0.00 68 1013.5
20260506222503 18 114 0.0 4.8 0.00 0.00 0.00 68 1013.6
20260506222403 18 185 0.0 4.8 0.00 0.00 0.00 68 1013.5
20260506222305 18 252 0.0 4.8 0.00 0.00 0.00 68 1013.5
20260506222203 18 263 0.0 4.8 0.00 0.00 0.00 68 1013.5
20260506222103 18 263 0.0 4.8 0.00 0.00 0.00 69 1013.5
20260506222003 18 269 0.0 4.8 0.00 0.00 0.00 69 1013.5
20260506221903 18 272 0.0 4.8 0.00 0.00 0.00 69 1013.7
20260506221803 18 283 0.0 4.8 0.00 0.00 0.00 69 1013.6
20260506221703 18 283 0.0 4.8 0.00 0.00 0.00 69 1013.8
20260506221603 18 283 0.0 4.8 0.00 0.00 0.00 69 1013.7
20260506221504 18 282 0.0 4.8 0.00 0.00 0.00 69 1013.6
20260506221403 18 270 0.0 1.6 0.00 0.00 0.00 70 1013.9
20260506221303 18 270 0.0 1.6 0.00 0.00 0.00 70 1013.7
20260506221203 18 112 0.0 3.2 0.00 0.00 0.00 70 1013.8
20260506221103 18 112 0.0 3.2 0.00 0.00 0.00 70 1013.8
20260506221003 18 112 0.0 3.2 0.00 0.00 0.00 70 1013.7
20260506220903 18 112 0.0 3.2 0.00 0.00 0.00 70 1013.6
20260506220803 18 112 0.0 3.2 0.00 0.00 0.00 70 1013.4
20260506220703 18 124 0.0 3.2 0.00 0.00 0.00 70 1013.5
20260506220603 18 124 0.0 3.2 0.00 0.00 0.00 70 1013.6
20260506220503 18 124 0.0 3.2 0.00 0.00 0.00 70 1013.6
20260506220403 18 124 0.0 3.2 0.00 0.00 0.00 71 1013.5
20260506220303 18 124 0.0 3.2 0.00 0.00 0.00 71 1013.5
20260506220203 18 270 0.0 1.6 0.00 0.00 0.00 72 1013.6
20260506220040 18 270 0.0 1.6 0.00 0.00 0.00 72 1013.6
20260506215903 18 270 0.0 1.6 0.00 0.00 0.00 73 1013.5
20260506215803 18 270 0.0 1.6 0.00 0.00 0.00 73 1013.4
20260506215703 17 0 0.0 0.0 0.00 0.00 0.00 73 1013.5
20260506215603 17 0 0.0 0.0 0.00 0.00 0.00 74 1013.6
20260506215503 17 0 0.0 0.0 0.00 0.00 0.00 74 1013.6
20260506215403 17 0 0.0 0.0 0.00 0.00 0.00 74 1013.7
20260506215305 17 0 0.0 0.0 0.00 0.00 0.00 75 1013.8
20260506215203 17 0 0.0 0.0 0.00 0.00 0.00 75 1013.7
20260506215103 17 0 0.0 0.0 0.00 0.00 0.00 75 1013.7
20260506215003 17 0 0.0 0.0 0.00 0.00 0.00 76 1013.9
20260506214903 17 0 0.0 0.0 0.00 0.00 0.00 76 1013.8
20260506214803 17 90 0.0 1.6 0.00 0.00 0.00 76 1013.8
20260506214703 17 90 0.0 1.6 0.00 0.00 0.00 76 1013.8
20260506214603 17 90 0.0 1.6 0.00 0.00 0.00 76 1013.8
20260506214504 17 102 0.0 4.8 0.00 0.00 0.00 76 1013.8
20260506214404 17 102 0.0 4.8 0.00 0.00 0.00 76 1013.8
20260506214304 17 105 0.0 4.8 0.00 0.00 0.00 76 1013.9
20260506214204 17 105 0.0 4.8 0.00 0.00 0.00 76 1013.9
20260506214104 17 105 0.0 4.8 0.00 0.00 0.00 76 1013.7
20260506214004 17 105 0.0 4.8 0.00 0.00 0.00 76 1013.8
20260506213904 17 105 0.0 4.8 0.00 0.00 0.00 76 1013.7
20260506213804 17 107 0.0 4.8 0.00 0.00 0.00 76 1013.8
20260506213704 17 107 0.0 4.8 0.00 0.00 0.00 77 1013.6
20260506213604 17 107 0.0 4.8 0.00 0.00 0.00 77 1013.7
20260506213504 17 112 0.0 1.6 0.00 0.00 0.00 77 1013.7
20260506213404 17 112 0.0 1.6 0.00 0.00 0.00 77 1013.7
20260506213304 17 0 0.0 0.0 0.00 0.00 0.00 77 1013.7
20260506213204 17 0 0.0 0.0 0.00 0.00 0.00 77 1013.7
20260506213104 17 0 0.0 0.0 0.00 0.00 0.00 77 1013.7
20260506213004 17 0 0.0 0.0 0.00 0.00 0.00 78 1013.4
20260506212904 17 0 0.0 0.0 0.00 0.00 0.00 78 1013.5
20260506212804 17 0 0.0 0.0 0.00 0.00 0.00 78 1013.5
20260506212704 17 0 0.0 0.0 0.00 0.00 0.00 78 1013.5
20260506212604 17 0 0.0 0.0 0.00 0.00 0.00 78 1013.4
20260506212504 17 0 0.0 0.0 0.00 0.00 0.00 78 1013.3
20260506212404 17 0 0.0 0.0 0.00 0.00 0.00 78 1013.3
20260506212306 17 0 0.0 0.0 0.00 0.00 0.00 79 1013.2
20260506212204 17 0 0.0 0.0 0.00 0.00 0.00 79 1013.2
20260506212104 17 0 0.0 0.0 0.00 0.00 0.00 79 1013.3
20260506212004 17 131 0.0 4.8 0.00 0.00 0.00 79 1013.2
20260506211904 17 131 0.0 4.8 0.00 0.00 0.00 79 1013.2
20260506211804 17 131 0.0 4.8 0.00 0.00 0.00 79 1013.3
20260506211704 17 131 0.0 4.8 0.00 0.00 0.00 79 1013.2
20260506211604 17 131 0.0 4.8 0.00 0.00 0.00 79 1013.2
20260506211504 17 131 0.0 4.8 0.00 0.00 0.00 80 1013.2
20260506211404 17 131 0.0 4.8 0.00 0.00 0.00 80 1013.3
20260506211304 17 131 0.0 4.8 0.00 0.00 0.00 80 1013.3
20260506211204 17 131 0.0 4.8 0.00 0.00 0.00 80 1013.4
20260506211104 17 131 0.0 4.8 0.00 0.00 0.00 80 1013.4
20260506211004 17 0 0.0 0.0 0.00 0.00 0.00 81 1013.3
20260506210904 17 0 0.0 0.0 0.00 0.00 0.00 81 1013.5
20260506210804 17 0 0.0 0.0 0.00 0.00 0.00 81 1013.4
20260506210704 17 112 0.0 1.6 0.00 0.00 0.00 81 1013.4
20260506210604 17 112 0.0 1.6 0.00 0.00 0.00 81 1013.5
20260506210504 17 102 0.0 1.6 0.00 0.00 0.00 81 1013.5
20260506210404 17 96 0.0 1.6 0.00 0.00 0.00 81 1013.4
20260506210304 17 96 0.0 1.6 0.00 0.00 0.00 81 1013.4
20260506210204 17 96 0.0 1.6 0.00 0.00 0.00 81 1013.5
20260506210104 17 96 0.0 1.6 0.00 0.00 0.00 81 1013.6
20260506210004 17 92 0.0 8.0 0.00 0.00 0.00 81 1013.7
20260506205904 17 92 0.0 8.0 0.00 0.00 0.00 81 1013.6
20260506205804 17 92 0.0 8.0 0.00 0.00 0.00 81 1013.6
20260506205704 17 88 0.0 8.0 0.00 0.00 0.00 81 1013.7
20260506205604 17 88 0.0 8.0 0.00 0.00 0.00 82 1013.6
20260506205503 17 88 0.0 8.0 0.00 0.00 0.00 82 1013.6
20260506205404 17 87 0.0 8.0 0.00 0.00 0.00 82 1013.7
20260506205306 17 87 0.0 8.0 0.00 0.00 0.00 82 1013.8
20260506205204 17 87 0.0 8.0 0.00 0.00 0.00 82 1013.7
20260506205104 17 75 0.0 8.0 0.00 0.00 0.00 82 1013.7
20260506205003 17 315 0.0 1.6 0.00 0.00 0.00 82 1013.7
20260506204903 17 315 0.0 1.6 0.00 0.00 0.00 82 1013.8
20260506204803 17 315 0.0 1.6 0.00 0.00 0.00 82 1013.9
20260506204703 17 315 0.0 1.6 0.00 0.00 0.00 82 1013.8
20260506204603 17 315 0.0 1.6 0.00 0.00 0.00 82 1013.8
20260506204503 17 315 0.0 1.6 0.00 0.00 0.00 82 1013.8
20260506204403 17 22 0.0 1.6 0.00 0.00 0.00 82 1013.9
20260506204303 17 22 0.0 1.6 0.00 0.00 0.00 82 1013.9
20260506204203 17 325 0.0 3.2 0.00 0.00 0.00 82 1014.0
20260506204103 17 314 0.0 3.2 0.00 0.00 0.00 82 1013.9
20260506204003 17 314 0.0 3.2 0.00 0.00 0.00 82 1013.9
20260506203903 17 314 0.0 3.2 0.00 0.00 0.00 82 1013.9
20260506203803 17 314 0.0 3.2 0.00 0.00 0.00 82 1014.0
20260506203703 17 307 0.0 3.2 0.00 0.00 0.00 82 1014.1
20260506203603 17 301 0.0 3.2 0.00 0.00 0.00 82 1014.1
20260506203503 17 296 0.0 3.2 0.00 0.00 0.00 82 1014.3
20260506203403 17 289 0.0 3.2 0.00 0.00 0.00 82 1014.3
20260506203303 17 289 0.0 3.2 0.00 0.00 0.00 82 1014.3
20260506203203 17 288 0.0 1.6 0.00 0.00 0.00 82 1014.4
20260506203103 17 287 0.0 1.6 0.00 0.00 0.00 82 1014.4
20260506203003 17 287 0.0 1.6 0.00 0.00 0.00 82 1014.5
20260506202903 17 287 0.0 1.6 0.00 0.00 0.00 82 1014.5
20260506202803 17 287 0.0 1.6 0.00 0.00 0.00 82 1014.4
20260506202703 17 285 0.0 1.6 0.00 0.00 0.00 82 1014.5
20260506202603 17 90 0.0 1.6 0.00 0.00 0.00 82 1014.5
20260506202503 17 90 0.0 1.6 0.00 0.00 0.00 82 1014.5
20260506202404 17 90 0.0 1.6 0.00 0.00 0.00 82 1014.5
20260506202306 17 90 0.0 1.6 0.00 0.00 0.00 82 1014.6
20260506202203 17 90 0.0 1.6 0.00 0.00 0.00 82 1014.6
20260506202103 17 90 0.0 1.6 0.00 0.00 0.00 82 1014.7
20260506202003 17 90 0.0 1.6 0.00 0.00 0.00 82 1014.6
20260506201903 17 90 0.0 1.6 0.00 0.00 0.00 82 1014.7
20260506201803 17 90 0.0 1.6 0.00 0.00 0.00 82 1014.7
20260506201703 17 90 0.0 1.6 0.00 0.00 0.00 82 1014.7
20260506201603 17 292 0.0 3.2 0.00 0.00 0.00 82 1014.7
20260506201503 17 292 0.0 3.2 0.00 0.00 0.00 82 1014.7
20260506201403 17 281 0.0 3.2 0.00 0.00 0.00 82 1014.7
20260506201303 17 281 0.0 3.2 0.00 0.00 0.00 82 1014.8
20260506201203 17 314 0.0 3.2 0.00 0.00 0.00 82 1014.8
20260506201103 17 314 0.0 3.2 0.00 0.00 0.00 82 1014.8
20260506201003 17 314 0.0 3.2 0.00 0.00 0.00 82 1014.8
20260506200903 17 314 0.0 3.2 0.00 0.00 0.00 82 1014.9
20260506200803 17 314 0.0 3.2 0.00 0.00 0.00 82 1014.9
20260506200703 17 314 0.0 3.2 0.00 0.00 0.00 82 1015.0
20260506200603 17 102 0.0 1.6 0.00 0.00 0.00 82 1015.0
20260506200503 17 89 0.0 1.6 0.00 0.00 0.00 82 1015.0
20260506200403 17 36 0.0 1.6 0.00 0.00 0.00 81 1015.1
20260506200303 17 36 0.0 1.6 0.00 0.00 0.00 81 1015.0
20260506200203 17 292 0.0 1.6 0.00 0.00 0.00 81 1015.1
20260506200003 17 264 0.0 1.6 0.00 0.00 0.00 81 1015.0
20260506195903 17 124 0.0 3.2 0.00 0.00 0.00 81 1015.1
20260506195803 17 124 0.0 3.2 0.00 0.00 0.00 81 1015.0
20260506195703 17 124 0.0 3.2 0.00 0.00 0.00 81 1015.1
20260506195603 17 118 0.0 3.2 0.00 0.00 0.00 81 1015.1
20260506195503 17 114 0.0 4.8 0.00 0.00 0.00 81 1015.1
20260506195403 17 117 0.0 4.8 0.00 0.00 0.00 81 1015.2
20260506195305 17 116 0.0 4.8 0.00 0.00 0.00 81 1015.1
20260506195203 17 115 0.0 4.8 0.00 0.00 0.00 81 1015.1
20260506195103 17 118 0.0 4.8 0.00 0.00 0.00 81 1015.0
20260506195003 17 117 0.0 4.8 0.00 0.00 0.00 81 1015.1
20260506194903 17 114 0.0 4.8 0.00 0.00 0.00 81 1015.0
20260506194803 17 114 0.0 4.8 0.00 0.00 0.00 81 1015.1
20260506194703 17 114 0.0 4.8 0.00 0.00 0.00 81 1015.0
20260506194603 17 114 0.0 4.8 0.00 0.00 0.00 81 1014.9
20260506194503 17 117 0.0 4.8 0.00 0.00 0.00 81 1014.9
20260506194403 17 114 0.0 4.8 0.00 0.00 0.00 81 1014.9
20260506194303 17 114 0.0 4.8 0.00 0.00 0.00 81 1014.9
20260506194203 17 116 0.0 3.2 0.00 0.00 0.00 81 1014.9
20260506194103 17 85 0.0 1.6 0.00 0.00 0.00 81 1014.9
20260506194003 17 82 0.0 1.6 0.00 0.00 0.00 81 1014.9
20260506193903 17 76 0.0 1.6 0.00 0.00 0.00 81 1014.9
20260506193803 17 76 0.0 1.6 0.00 0.00 0.00 81 1014.9
20260506193703 17 76 0.0 1.6 0.00 0.00 0.00 81 1014.9
20260506193603 17 88 0.0 1.6 0.00 0.00 0.00 81 1014.9
20260506193503 18 89 0.0 1.6 0.00 0.00 0.00 81 1015.0
20260506193403 18 89 0.0 1.6 0.00 0.00 0.00 80 1014.9
20260506193303 18 89 0.0 1.6 0.00 0.00 0.00 81 1015.0
20260506193203 18 98 0.0 1.6 0.00 0.00 0.00 80 1015.0
20260506193103 18 98 0.0 1.6 0.00 0.00 0.00 80 1015.0
20260506193003 18 98 0.0 1.6 0.00 0.00 0.00 80 1015.0
20260506192903 18 118 0.0 1.6 0.00 0.00 0.00 80 1014.9
20260506192803 18 118 0.0 1.6 0.00 0.00 0.00 80 1015.0
20260506192703 18 283 0.0 3.2 0.00 0.00 0.00 80 1015.0
20260506192603 18 285 0.0 3.2 0.00 0.00 0.00 80 1015.0
20260506192503 18 288 0.0 3.2 0.00 0.00 0.00 80 1014.9
20260506192404 18 283 0.0 3.2 0.00 0.00 0.00 80 1014.9
20260506192305 18 283 0.0 3.2 0.00 0.00 0.00 80 1015.0
20260506192204 18 111 0.0 4.8 0.00 0.00 0.00 80 1014.9
20260506192104 18 112 0.0 4.8 0.00 0.00 0.00 80 1014.9
20260506192004 18 112 0.0 4.8 0.00 0.00 0.00 80 1014.9
20260506191904 18 109 0.0 4.8 0.00 0.00 0.00 80 1014.9
20260506191804 18 107 0.0 4.8 0.00 0.00 0.00 80 1014.9
20260506191704 18 113 0.0 4.8 0.00 0.00 0.00 80 1015.0
20260506191604 18 113 0.0 4.8 0.00 0.00 0.00 80 1015.0
20260506191504 18 113 0.0 4.8 0.00 0.00 0.00 80 1014.9
20260506191404 18 113 0.0 4.8 0.00 0.00 0.00 80 1014.9
20260506191304 18 113 0.0 4.8 0.00 0.00 0.00 80 1014.9
20260506191204 18 115 0.0 3.2 0.00 0.00 0.00 80 1015.0
20260506191104 18 286 0.0 3.2 0.00 0.00 0.00 80 1015.1
20260506191004 18 286 0.0 3.2 0.00 0.00 0.00 79 1015.0
20260506190904 18 310 0.0 3.2 0.00 0.00 0.00 79 1015.0
20260506190804 18 301 0.0 3.2 0.00 0.00 0.00 79 1015.1
20260506190704 18 332 0.0 3.2 0.00 0.00 0.00 79 1015.1
20260506190604 18 332 0.0 3.2 0.00 0.00 0.00 79 1015.0
20260506190504 18 332 0.0 3.2 0.00 0.00 0.00 79 1015.1
20260506190404 18 332 0.0 3.2 0.00 0.00 0.00 79 1015.1
20260506190304 18 332 0.0 3.2 0.00 0.00 0.00 79 1015.0
20260506190204 18 360 0.0 3.2 0.00 0.00 0.00 79 1015.1
20260506190104 18 360 0.0 3.2 0.00 0.00 0.00 79 1015.1
20260506190004 18 360 0.0 3.2 0.00 0.00 0.00 79 1015.1
20260506185904 18 112 0.0 3.2 0.00 0.00 0.00 79 1015.1
20260506185804 18 112 0.0 3.2 0.00 0.00 0.00 79 1015.0
20260506185704 18 112 0.0 3.2 0.00 0.00 0.00 79 1014.9
20260506185604 18 112 0.0 3.2 0.00 0.00 0.00 79 1015.0
20260506185504 18 110 0.0 4.8 0.00 0.00 0.00 79 1015.0
20260506185404 18 112 0.0 4.8 0.00 0.00 0.00 79 1014.9
20260506185306 18 112 0.0 4.8 0.00 0.00 0.00 79 1014.9
20260506185204 18 112 0.0 4.8 0.00 0.00 0.00 79 1014.9
20260506185104 18 112 0.0 4.8 0.00 0.00 0.00 79 1014.8
20260506185004 18 111 0.0 6.4 0.00 0.00 0.00 79 1014.8
20260506184904 18 111 0.0 6.4 0.00 0.00 0.00 79 1014.7
20260506184804 18 111 0.0 6.4 0.00 0.00 0.00 79 1014.8
20260506184704 18 109 0.0 6.4 0.00 0.00 0.00 79 1014.8
20260506184604 18 109 0.0 6.4 0.00 0.00 0.00 79 1014.8
20260506184504 18 109 0.0 6.4 0.00 0.00 0.00 79 1014.7
20260506184404 18 105 0.0 6.4 0.00 0.00 0.00 79 1014.7
20260506184304 18 102 0.0 6.4 0.00 0.00 0.00 79 1014.6
20260506184203 18 102 0.0 6.4 0.00 0.00 0.00 79 1014.5
20260506184104 18 103 0.0 6.4 0.00 0.00 0.00 78 1014.6
20260506184004 18 88 0.0 3.2 0.00 0.00 0.00 78 1014.6
20260506183904 18 90 0.0 3.2 0.00 0.00 0.00 78 1014.6
20260506183803 18 90 0.0 3.2 0.00 0.00 0.00 78 1014.6
20260506183704 18 100 0.0 3.2 0.00 0.00 0.00 78 1014.5
20260506183604 18 104 0.0 3.2 0.00 0.00 0.00 78 1014.6
20260506183504 18 104 0.0 3.2 0.00 0.00 0.00 78 1014.5
20260506183404 18 110 0.0 3.2 0.00 0.00 0.00 78 1014.6
20260506183304 18 107 0.0 3.2 0.00 0.00 0.00 78 1014.5
20260506183203 18 104 0.0 3.2 0.00 0.00 0.00 78 1014.5
20260506183103 18 108 0.0 3.2 0.00 0.00 0.00 78 1014.5
20260506183004 18 103 0.0 3.2 0.00 0.00 0.00 77 1014.5
20260506182903 18 102 0.0 3.2 0.00 0.00 0.00 77 1014.7
20260506182803 18 102 0.0 3.2 0.00 0.00 0.00 77 1014.5
20260506182704 18 99 0.0 3.2 0.00 0.00 0.00 77 1014.6
20260506182603 18 92 0.0 3.2 0.00 0.00 0.00 77 1014.6
20260506182503 18 92 0.0 3.2 0.00 0.00 0.00 77 1014.7
20260506182403 18 106 0.0 3.2 0.00 0.00 0.00 77 1014.7
20260506182306 18 110 0.0 3.2 0.00 0.00 0.00 77 1014.6
20260506182203 18 277 0.0 3.2 0.00 0.00 0.00 77 1014.5
20260506182103 18 293 0.0 3.2 0.00 0.00 0.00 77 1014.5
20260506182003 18 277 0.0 3.2 0.00 0.00 0.00 77 1014.5
20260506181903 18 264 0.0 3.2 0.00 0.00 0.00 76 1014.5
20260506181803 18 264 0.0 3.2 0.00 0.00 0.00 76 1014.5
20260506181703 18 253 0.0 3.2 0.00 0.00 0.00 76 1014.4
20260506181603 18 253 0.0 3.2 0.00 0.00 0.00 76 1014.5
20260506181503 18 253 0.0 3.2 0.00 0.00 0.00 76 1014.5
20260506181403 18 277 0.0 3.2 0.00 0.00 0.00 76 1014.5
20260506181303 18 277 0.0 3.2 0.00 0.00 0.00 76 1014.5
20260506181203 18 180 0.0 3.2 0.00 0.00 0.00 76 1014.4
20260506181103 18 180 0.0 3.2 0.00 0.00 0.00 76 1014.4
20260506181003 18 163 0.0 3.2 0.00 0.00 0.00 76 1014.4
20260506180903 18 115 0.0 3.2 0.00 0.00 0.00 76 1014.4
20260506180803 18 115 0.0 3.2 0.00 0.00 0.00 76 1014.4
20260506180703 18 115 0.0 3.2 0.00 0.00 0.00 76 1014.4
20260506180603 18 115 0.0 3.2 0.00 0.00 0.00 76 1014.4
20260506180503 18 115 0.0 3.2 0.00 0.00 0.00 76 1014.2
20260506180403 18 115 0.0 3.2 0.00 0.00 0.00 76 1014.2
20260506180303 18 118 0.0 3.2 0.00 0.00 0.00 76 1014.4
20260506180203 18 120 0.0 3.2 0.00 0.00 0.00 76 1014.3
20260506180103 18 120 0.0 3.2 0.00 0.00 0.00 76 1014.4
20260506180004 18 116 0.0 3.2 0.00 0.00 0.00 76 1014.3
20260506175903 18 122 0.0 1.6 0.00 0.00 0.00 75 1014.3
20260506175803 18 122 0.0 1.6 0.00 0.00 0.00 76 1014.3
20260506175703 18 122 0.0 1.6 0.00 0.00 0.00 75 1014.3
20260506175603 18 122 0.0 1.6 0.00 0.00 0.00 75 1014.3
20260506175503 18 115 0.0 3.2 0.00 0.00 0.00 75 1014.2
20260506175403 18 114 0.0 4.8 0.00 0.00 0.00 75 1014.1
20260506175306 18 112 0.0 4.8 0.00 0.00 0.00 75 1014.1
20260506175203 19 112 0.0 4.8 0.00 0.00 0.00 75 1014.1
20260506175103 19 112 0.0 4.8 0.00 0.00 0.00 75 1014.2
20260506175003 19 112 0.0 4.8 0.00 0.00 0.00 75 1014.2
20260506174903 19 110 0.0 4.8 0.00 0.00 0.00 75 1014.1
20260506174803 19 110 0.0 4.8 0.00 0.00 0.00 75 1014.1
20260506174703 19 110 0.0 4.8 0.00 0.00 0.00 75 1014.0
20260506174603 19 110 0.0 4.8 0.00 0.00 0.00 75 1013.9
20260506174503 19 109 0.0 4.8 0.00 0.00 0.00 75 1013.9
20260506174403 19 107 0.0 4.8 0.00 0.00 0.00 75 1013.9
20260506174303 19 107 0.0 4.8 0.00 0.00 0.00 75 1013.8
20260506174203 19 107 0.0 4.8 0.00 0.00 0.00 75 1014.0
20260506174103 19 107 0.0 4.8 0.00 0.00 0.00 75 1014.1
20260506174003 19 107 0.0 4.8 0.00 0.00 0.00 75 1014.0
20260506173903 19 0 0.0 0.0 0.00 0.00 0.00 75 1014.1
20260506173803 19 0 0.0 0.0 0.00 0.00 0.00 75 1014.1
20260506173703 19 0 0.0 0.0 0.00 0.00 0.00 75 1014.0
20260506173603 19 0 0.0 0.0 0.00 0.00 0.00 75 1014.0
20260506173503 19 0 0.0 0.0 0.00 0.00 0.00 75 1014.1
20260506173403 19 0 0.0 0.0 0.00 0.00 0.00 75 1014.1
20260506173303 19 0 0.0 0.0 0.00 0.00 0.00 75 1014.1
20260506173203 19 105 0.0 3.2 0.00 0.00 0.00 75 1014.1
20260506173103 19 108 0.0 3.2 0.00 0.00 0.00 75 1014.1
20260506173003 19 108 0.0 3.2 0.00 0.00 0.00 75 1014.1
20260506172903 19 108 0.0 3.2 0.00 0.00 0.00 75 1014.1
20260506172803 19 108 0.0 3.2 0.00 0.00 0.00 75 1014.0
20260506172703 19 108 0.0 3.2 0.00 0.00 0.00 74 1014.1
20260506172603 19 108 0.0 3.2 0.00 0.00 0.00 74 1014.1
20260506172503 19 108 0.0 3.2 0.00 0.00 0.00 74 1014.1
20260506172403 19 108 0.0 3.2 0.00 0.00 0.00 74 1014.1
20260506172306 19 108 0.0 3.2 0.00 0.00 0.00 74 1014.1
20260506172203 19 112 0.0 3.2 0.00 0.00 0.00 74 1014.1
20260506172103 19 0 0.0 0.0 0.00 0.00 0.00 74 1014.1
20260506172003 19 0 0.0 0.0 0.00 0.00 0.00 74 1014.1
20260506171903 19 0 0.0 0.0 0.00 0.00 0.00 74 1014.1
20260506171803 19 112 0.0 1.6 0.00 0.00 0.00 74 1014.1
20260506171703 19 112 0.0 1.6 0.00 0.00 0.00 74 1014.2
20260506171603 19 108 0.0 1.6 0.00 0.00 0.00 74 1014.2
20260506171503 20 108 0.0 1.6 0.00 0.00 0.00 74 1014.2
20260506171403 19 108 0.0 1.6 0.00 0.00 0.00 74 1014.1
20260506171303 20 108 0.0 1.6 0.00 0.00 0.00 74 1014.2
20260506171203 20 108 0.0 1.6 0.00 0.00 0.00 74 1014.2
20260506171103 20 108 0.0 1.6 0.00 0.00 0.00 74 1014.2
20260506171003 20 109 0.0 1.6 0.00 0.00 0.00 74 1014.3
20260506170903 20 109 0.0 1.6 0.00 0.00 0.00 74 1014.3
20260506170803 20 107 0.0 1.6 0.00 0.00 0.00 74 1014.3
20260506170703 20 102 0.0 1.6 0.00 0.00 0.00 74 1014.4
20260506170603 20 112 0.0 1.6 0.00 0.00 0.00 74 1014.4
20260506170503 20 112 0.0 1.6 0.00 0.00 0.00 74 1014.4
20260506170403 20 112 0.0 1.6 0.00 0.00 0.00 73 1014.4
20260506170303 20 97 0.0 1.6 0.00 0.00 0.00 73 1014.4
20260506170203 20 97 0.0 1.6 0.00 0.00 0.00 73 1014.4
20260506170103 20 97 0.0 1.6 0.00 0.00 0.00 73 1014.4
20260506170003 20 90 0.0 1.6 0.00 0.00 0.00 73 1014.4
20260506165903 20 90 0.0 1.6 0.00 0.00 0.00 73 1014.4
20260506165803 20 104 0.0 3.2 0.00 0.00 0.00 73 1014.4
20260506165703 20 104 0.0 3.2 0.00 0.00 0.00 73 1014.4
20260506165603 20 104 0.0 3.2 0.00 0.00 0.00 73 1014.4
20260506165503 20 107 0.0 3.2 0.00 0.00 0.00 73 1014.3
20260506165403 20 107 0.0 3.2 0.00 0.00 0.00 73 1014.4
20260506165305 20 109 0.0 3.2 0.00 0.00 0.00 73 1014.4
20260506165203 20 109 0.0 3.2 0.00 0.00 0.00 73 1014.4
20260506165103 20 109 0.0 3.2 0.00 0.00 0.00 73 1014.3
20260506165003 20 109 0.0 3.2 0.00 0.00 0.00 73 1014.4
20260506164903 20 109 0.0 3.2 0.00 0.00 0.00 73 1014.4
20260506164803 20 107 0.0 3.2 0.00 0.00 0.00 73 1014.3
20260506164703 20 107 0.0 3.2 0.00 0.00 0.00 73 1014.3
20260506164603 20 108 0.0 3.2 0.00 0.00 0.00 73 1014.4
20260506164504 20 101 0.0 3.2 0.00 0.00 0.00 73 1014.3
20260506164404 20 101 0.0 3.2 0.00 0.00 0.00 73 1014.3
20260506164304 20 101 0.0 3.2 0.00 0.00 0.00 73 1014.4
20260506164204 20 101 0.0 3.2 0.00 0.00 0.00 73 1014.3
20260506164104 20 101 0.0 3.2 0.00 0.00 0.00 72 1014.3
20260506164004 20 101 0.0 3.2 0.00 0.00 0.00 72 1014.4
20260506163904 20 101 0.0 3.2 0.00 0.00 0.00 72 1014.4
20260506163804 20 101 0.0 3.2 0.00 0.00 0.00 72 1014.4
20260506163704 20 101 0.0 3.2 0.00 0.00 0.00 72 1014.4
20260506163604 20 90 0.0 3.2 0.00 0.00 0.00 72 1014.4
20260506163504 20 102 0.0 3.2 0.00 0.00 0.00 72 1014.3
20260506163404 20 109 0.0 3.2 0.00 0.00 0.00 72 1014.4
20260506163304 20 112 0.0 3.2 0.00 0.00 0.00 72 1014.4
20260506163204 20 112 0.0 3.2 0.00 0.00 0.00 72 1014.4
20260506163104 20 112 0.0 3.2 0.00 0.00 0.00 72 1014.5
20260506163004 20 112 0.0 3.2 0.00 0.00 0.00 72 1014.4
20260506162904 20 112 0.0 3.2 0.00 0.00 0.00 72 1014.5
20260506162804 20 112 0.0 3.2 0.00 0.00 0.00 72 1014.5
20260506162704 20 112 0.0 3.2 0.00 0.00 0.00 72 1014.5
20260506162604 20 112 0.0 3.2 0.00 0.00 0.00 72 1014.5
20260506162504 20 116 0.0 3.2 0.00 0.00 0.00 72 1014.4
20260506162404 20 149 0.0 3.2 0.00 0.00 0.00 72 1014.4
20260506162306 20 270 0.0 3.2 0.00 0.00 0.00 72 1014.4
20260506162204 20 270 0.0 3.2 0.00 0.00 0.00 72 1014.4
20260506162104 20 270 0.0 3.2 0.00 0.00 0.00 72 1014.4
20260506162004 20 284 0.0 3.2 0.00 0.00 0.00 72 1014.4
20260506161904 20 284 0.0 3.2 0.00 0.00 0.00 72 1014.5
20260506161804 20 338 0.0 3.2 0.00 0.00 0.00 72 1014.5
20260506161704 20 338 0.0 3.2 0.00 0.00 0.00 72 1014.5
20260506161604 20 338 0.0 3.2 0.00 0.00 0.00 72 1014.6
20260506161504 20 109 0.0 3.2 0.00 0.00 0.00 72 1014.6
20260506161404 20 109 0.0 3.2 0.00 0.00 0.00 72 1014.5
20260506161304 20 109 0.0 3.2 0.00 0.00 0.00 72 1014.6
20260506161204 20 109 0.0 3.2 0.00 0.00 0.00 72 1014.6
20260506161104 20 109 0.0 3.2 0.00 0.00 0.00 72 1014.6
20260506161004 20 118 0.0 3.2 0.00 0.00 0.00 72 1014.7
20260506160904 20 118 0.0 3.2 0.00 0.00 0.00 72 1014.7
20260506160804 20 116 0.0 6.4 0.00 0.00 0.00 71 1014.7
20260506160703 20 116 0.0 6.4 0.00 0.00 0.00 72 1014.8
20260506160604 20 116 0.0 6.4 0.00 0.00 0.00 71 1014.7
20260506160504 20 112 0.0 6.4 0.00 0.00 0.00 71 1014.8
20260506160404 20 112 0.0 6.4 0.00 0.00 0.00 71 1014.7
20260506160304 20 112 0.0 6.4 0.00 0.00 0.00 71 1014.7
20260506160204 20 112 0.0 6.4 0.00 0.00 0.00 71 1014.8
20260506160103 20 112 0.0 6.4 0.00 0.00 0.00 71 1014.7
20260506160004 20 112 0.0 6.4 0.00 0.00 0.00 71 1014.6
20260506155903 20 112 0.0 6.4 0.00 0.00 0.00 71 1014.6
20260506155803 20 112 0.0 3.2 0.00 0.00 0.00 71 1014.7
20260506155703 20 112 0.0 3.2 0.00 0.00 0.00 71 1014.6
20260506155603 20 112 0.0 3.2 0.00 0.00 0.00 71 1014.7
20260506155503 20 112 0.0 6.4 0.00 0.00 0.00 71 1014.6
20260506155403 20 112 0.0 6.4 0.00 0.00 0.00 71 1014.7
20260506155306 20 112 0.0 6.4 0.00 0.00 0.00 71 1014.7
20260506155203 20 112 0.0 6.4 0.00 0.00 0.00 71 1014.7
20260506155103 20 292 0.0 6.4 0.00 0.00 0.00 71 1014.7
20260506155004 20 228 0.0 6.4 0.00 0.00 0.00 71 1014.7
20260506154903 20 228 0.0 6.4 0.00 0.00 0.00 71 1014.6
20260506154803 20 258 0.0 6.4 0.00 0.00 0.00 71 1014.7
20260506154703 20 244 0.0 6.4 0.00 0.00 0.00 71 1014.6
20260506154603 20 244 0.0 6.4 0.00 0.00 0.00 71 1014.7
20260506154504 20 268 0.0 6.4 0.00 0.00 0.00 71 1014.8
20260506154403 20 268 0.0 6.4 0.00 0.00 0.00 70 1014.8
20260506154303 20 273 0.0 6.4 0.00 0.00 0.00 70 1014.7
20260506154203 20 273 0.0 6.4 0.00 0.00 0.00 70 1014.6
20260506154103 20 203 0.0 3.2 0.00 0.00 0.00 70 1014.7
20260506154003 21 212 0.0 3.2 0.00 0.00 0.00 70 1014.7
20260506153903 21 248 0.0 3.2 0.00 0.00 0.00 70 1014.7
20260506153803 21 222 0.0 3.2 0.00 0.00 0.00 70 1014.7
20260506153703 21 295 0.0 3.2 0.00 0.00 0.00 70 1014.7
20260506153603 21 297 0.0 3.2 0.00 0.00 0.00 70 1014.7
20260506153503 21 296 0.0 3.2 0.00 0.00 0.00 70 1014.8
20260506153403 21 312 0.0 6.4 0.00 0.00 0.00 70 1014.7
20260506153303 21 34 0.0 6.4 0.00 0.00 0.00 70 1014.7
20260506153203 21 34 0.0 6.4 0.00 0.00 0.00 70 1014.8
20260506153103 21 350 0.0 6.4 0.00 0.00 0.00 70 1014.7
20260506153003 21 306 0.0 6.4 0.00 0.00 0.00 70 1014.7
20260506152903 21 318 0.0 6.4 0.00 0.00 0.00 70 1014.8
20260506152803 21 308 1.6 6.4 0.00 0.00 0.00 70 1014.7
20260506152703 21 313 1.6 6.4 0.00 0.00 0.00 70 1014.8
20260506152603 21 313 0.0 6.4 0.00 0.00 0.00 70 1014.8
20260506152503 21 316 1.6 6.4 0.00 0.00 0.00 70 1014.8
20260506152403 21 299 1.6 6.4 0.00 0.00 0.00 70 1014.8
20260506152305 21 293 1.6 6.4 0.00 0.00 0.00 70 1014.8
20260506152203 21 294 1.6 6.4 0.00 0.00 0.00 69 1014.9
20260506152103 21 295 1.6 6.4 0.00 0.00 0.00 69 1014.8
20260506152003 21 298 0.0 6.4 0.00 0.00 0.00 69 1014.8
20260506151903 21 284 0.0 6.4 0.00 0.00 0.00 69 1014.8
20260506151803 21 258 0.0 6.4 0.00 0.00 0.00 69 1014.8
20260506151703 21 116 0.0 6.4 0.00 0.00 0.00 69 1014.8
20260506151603 21 117 0.0 6.4 0.00 0.00 0.00 69 1014.8
20260506151503 21 110 0.0 6.4 0.00 0.00 0.00 69 1014.8
20260506151403 21 85 0.0 4.8 0.00 0.00 0.00 69 1014.8
20260506151303 21 96 0.0 4.8 0.00 0.00 0.00 69 1014.7
20260506151203 21 101 0.0 4.8 0.00 0.00 0.00 69 1014.8
20260506151103 21 100 0.0 4.8 0.00 0.00 0.00 69 1014.7
20260506151003 21 89 1.6 11.3 0.00 0.00 0.00 69 1014.7
20260506150903 21 91 1.6 11.3 0.00 0.00 0.00 69 1014.7
20260506150803 21 91 1.6 11.3 0.00 0.00 0.00 69 1014.6
20260506150703 21 86 1.6 11.3 0.00 0.00 0.00 69 1014.7
20260506150603 21 89 1.6 11.3 0.00 0.00 0.00 69 1014.6